Wetterdaten: Freitag, 23.01.2026
Datum Zeit Temp. Aussen Temp. o. S. Temp +5cm Feuchte Auss Luftdruck Regen Sonnenschein Regendauer Solar Windböen Empfang
23.01.2026 00:00 3,8 °C 3,3 °C -0,6 °C 87 % 996,3 hPa 0,0 l/m² 0 min 0 min 0 W/m² 12,9 km/h (3 Bft) 100,00 %
23.01.2026 00:02 3,8 °C 3,3 °C -0,6 °C 87 % 996,2 hPa 0,0 l/m² 0 min 0 min 0 W/m² 16,1 km/h (3 Bft) 97,50 %
23.01.2026 00:04 3,8 °C 3,3 °C -0,6 °C 88 % 996,3 hPa 0,0 l/m² 0 min 0 min 0 W/m² 16,1 km/h (3 Bft) 100,00 %
23.01.2026 00:08 3,8 °C 3,3 °C -0,6 °C 88 % 996,3 hPa 0,0 l/m² 0 min 0 min 0 W/m² 19,3 km/h (3 Bft) 100,00 %
23.01.2026 00:10 3,8 °C 3,3 °C -0,6 °C 88 % 996,3 hPa 0,0 l/m² 0 min 0 min 0 W/m² 19,3 km/h (3 Bft) 99,29 %
23.01.2026 00:12 3,7 °C 3,3 °C -0,6 °C 88 % 996,3 hPa 0,0 l/m² 0 min 0 min 0 W/m² 16,1 km/h (3 Bft) 100,00 %
23.01.2026 00:16 3,7 °C 3,3 °C -0,6 °C 88 % 996,2 hPa 0,0 l/m² 0 min 0 min 0 W/m² 16,1 km/h (3 Bft) 98,91 %
23.01.2026 00:18 3,7 °C 3,3 °C -0,6 °C 88 % 996,2 hPa 0,0 l/m² 0 min 0 min 0 W/m² 16,1 km/h (3 Bft) 97,87 %
23.01.2026 00:20 3,7 °C 3,3 °C -0,6 °C 88 % 996,2 hPa 0,0 l/m² 0 min 0 min 0 W/m² 12,9 km/h (3 Bft) 100,00 %
23.01.2026 00:22 3,7 °C 3,3 °C -0,6 °C 88 % 996,3 hPa 0,0 l/m² 0 min 0 min 0 W/m² 22,5 km/h (4 Bft) 100,00 %
23.01.2026 00:24 3,7 °C 3,3 °C -0,6 °C 88 % 996,2 hPa 0,0 l/m² 0 min 0 min 0 W/m² 12,9 km/h (3 Bft) 100,00 %
23.01.2026 00:26 3,7 °C 3,3 °C -0,6 °C 88 % 996,2 hPa 0,0 l/m² 0 min 0 min 0 W/m² 16,1 km/h (3 Bft) 97,87 %
23.01.2026 00:28 3,7 °C 3,3 °C -0,6 °C 88 % 996,3 hPa 0,0 l/m² 0 min 0 min 0 W/m² 12,9 km/h (3 Bft) 94,29 %
23.01.2026 00:30 3,7 °C 3,3 °C -0,6 °C 88 % 996,2 hPa 0,0 l/m² 0 min 0 min 0 W/m² 19,3 km/h (3 Bft) 98,31 %
23.01.2026 00:32 3,7 °C 3,3 °C -0,6 °C 88 % 996,3 hPa 0,0 l/m² 0 min 0 min 0 W/m² 16,1 km/h (3 Bft) 95,74 %
23.01.2026 00:34 3,7 °C 3,3 °C -0,6 °C 88 % 996,3 hPa 0,0 l/m² 0 min 0 min 0 W/m² 16,1 km/h (3 Bft) 100,00 %
23.01.2026 00:36 3,7 °C 3,3 °C -0,6 °C 88 % 996,3 hPa 0,0 l/m² 0 min 0 min 0 W/m² 16,1 km/h (3 Bft) 100,00 %
23.01.2026 00:38 3,7 °C 2,8 °C -0,6 °C 88 % 996,2 hPa 0,0 l/m² 0 min 0 min 0 W/m² 19,3 km/h (3 Bft) 100,00 %
23.01.2026 00:40 3,7 °C 2,8 °C -0,6 °C 88 % 996,3 hPa 0,0 l/m² 0 min 0 min 0 W/m² 12,9 km/h (3 Bft) 100,00 %
23.01.2026 00:42 3,7 °C 2,8 °C -0,6 °C 88 % 996,2 hPa 0,0 l/m² 0 min 0 min 0 W/m² 19,3 km/h (3 Bft) 100,00 %
23.01.2026 00:44 3,7 °C 2,8 °C -0,6 °C 88 % 996,2 hPa 0,0 l/m² 0 min 0 min 0 W/m² 16,1 km/h (3 Bft) 100,00 %
23.01.2026 00:46 3,7 °C 2,8 °C -0,6 °C 88 % 996,3 hPa 0,0 l/m² 0 min 0 min 0 W/m² 16,1 km/h (3 Bft) 100,00 %
23.01.2026 00:48 3,7 °C 2,8 °C -0,6 °C 88 % 996,3 hPa 0,0 l/m² 0 min 0 min 0 W/m² 12,9 km/h (3 Bft) 100,00 %
23.01.2026 00:50 3,7 °C 2,8 °C -0,6 °C 89 % 996,2 hPa 0,0 l/m² 0 min 0 min 0 W/m² 16,1 km/h (3 Bft) 100,00 %
23.01.2026 00:52 3,7 °C 2,8 °C -0,6 °C 89 % 996,2 hPa 0,0 l/m² 0 min 0 min 0 W/m² 19,3 km/h (3 Bft) 100,00 %
23.01.2026 00:54 3,7 °C 2,8 °C -0,6 °C 89 % 996,3 hPa 0,0 l/m² 0 min 0 min 0 W/m² 22,5 km/h (4 Bft) 100,00 %
23.01.2026 00:56 3,7 °C 2,8 °C -0,6 °C 89 % 996,2 hPa 0,0 l/m² 0 min 0 min 0 W/m² 16,1 km/h (3 Bft) 97,92 %
23.01.2026 00:58 3,7 °C 2,8 °C -0,6 °C 89 % 996,2 hPa 0,0 l/m² 0 min 0 min 0 W/m² 12,9 km/h (3 Bft) 97,83 %
23.01.2026 01:00 3,6 °C 2,8 °C -1,1 °C 89 % 996,2 hPa 0,0 l/m² 0 min 0 min 0 W/m² 19,3 km/h (3 Bft) 93,33 %
23.01.2026 01:02 3,6 °C 2,8 °C -1,1 °C 89 % 996,1 hPa 0,0 l/m² 0 min 0 min 0 W/m² 19,3 km/h (3 Bft) 96,08 %
23.01.2026 01:04 3,6 °C 2,8 °C -1,1 °C 89 % 996,2 hPa 0,0 l/m² 0 min 0 min 0 W/m² 12,9 km/h (3 Bft) 97,44 %
23.01.2026 01:08 3,6 °C 2,8 °C -1,1 °C 89 % 996,1 hPa 0,0 l/m² 0 min 0 min 0 W/m² 19,3 km/h (3 Bft) 95,10 %
23.01.2026 01:10 3,6 °C 2,8 °C -1,1 °C 89 % 996,2 hPa 0,0 l/m² 0 min 0 min 0 W/m² 16,1 km/h (3 Bft) 95,83 %
23.01.2026 01:12 3,6 °C 2,8 °C -1,1 °C 89 % 996,1 hPa 0,0 l/m² 0 min 0 min 0 W/m² 16,1 km/h (3 Bft) 95,56 %
23.01.2026 01:14 3,6 °C 2,8 °C -1,1 °C 89 % 996,1 hPa 0,0 l/m² 0 min 0 min 0 W/m² 16,1 km/h (3 Bft) 95,65 %
23.01.2026 01:16 3,6 °C 2,8 °C -1,1 °C 89 % 996,2 hPa 0,0 l/m² 0 min 0 min 0 W/m² 12,9 km/h (3 Bft) 97,50 %
23.01.2026 01:18 3,5 °C 2,8 °C -1,1 °C 89 % 996,1 hPa 0,0 l/m² 0 min 0 min 0 W/m² 16,1 km/h (3 Bft) 94,44 %
23.01.2026 01:20 3,5 °C 2,8 °C -1,1 °C 89 % 996,2 hPa 0,0 l/m² 0 min 0 min 0 W/m² 19,3 km/h (3 Bft) 95,00 %
23.01.2026 01:22 3,5 °C 2,8 °C -1,1 °C 89 % 996,2 hPa 0,0 l/m² 0 min 0 min 0 W/m² 16,1 km/h (3 Bft) 95,74 %
23.01.2026 01:24 3,4 °C 2,8 °C -1,1 °C 89 % 996,2 hPa 0,0 l/m² 0 min 0 min 0 W/m² 12,9 km/h (3 Bft) 89,36 %
23.01.2026 01:26 3,4 °C 2,8 °C -1,1 °C 90 % 996,2 hPa 0,0 l/m² 0 min 0 min 0 W/m² 12,9 km/h (3 Bft) 95,92 %
23.01.2026 01:28 3,4 °C 2,8 °C -1,1 °C 90 % 996,2 hPa 0,0 l/m² 0 min 0 min 0 W/m² 19,3 km/h (3 Bft) 93,62 %
23.01.2026 01:30 3,4 °C 2,8 °C -1,1 °C 90 % 996,1 hPa 0,0 l/m² 0 min 0 min 0 W/m² 12,9 km/h (3 Bft) 93,33 %
23.01.2026 01:32 3,4 °C 2,8 °C -1,1 °C 90 % 996,1 hPa 0,0 l/m² 0 min 0 min 0 W/m² 6,4 km/h (2 Bft) 94,83 %
23.01.2026 01:34 3,4 °C 2,8 °C -1,1 °C 90 % 996,1 hPa 0,0 l/m² 0 min 0 min 0 W/m² 12,9 km/h (3 Bft) 92,11 %
23.01.2026 01:36 3,4 °C 2,8 °C -1,1 °C 90 % 996,1 hPa 0,0 l/m² 0 min 0 min 0 W/m² 16,1 km/h (3 Bft) 93,48 %
23.01.2026 01:38 3,3 °C 2,8 °C -1,1 °C 90 % 996,1 hPa 0,0 l/m² 0 min 0 min 0 W/m² 16,1 km/h (3 Bft) 95,74 %
23.01.2026 01:40 3,3 °C 2,8 °C -1,1 °C 90 % 996,1 hPa 0,0 l/m² 0 min 0 min 0 W/m² 16,1 km/h (3 Bft) 93,62 %
23.01.2026 01:42 3,3 °C 2,8 °C -1,1 °C 90 % 996,1 hPa 0,0 l/m² 0 min 0 min 0 W/m² 12,9 km/h (3 Bft) 93,62 %
23.01.2026 01:44 3,3 °C 2,8 °C -1,1 °C 90 % 996,2 hPa 0,0 l/m² 0 min 0 min 0 W/m² 19,3 km/h (3 Bft) 89,36 %
23.01.2026 01:46 3,3 °C 2,8 °C -1,1 °C 90 % 996,2 hPa 0,0 l/m² 0 min 0 min 0 W/m² 16,1 km/h (3 Bft) 93,62 %
23.01.2026 01:48 3,3 °C 2,8 °C -1,1 °C 90 % 996,2 hPa 0,0 l/m² 0 min 0 min 0 W/m² 19,3 km/h (3 Bft) 93,48 %
23.01.2026 01:50 3,3 °C 2,8 °C -1,1 °C 91 % 996,2 hPa 0,0 l/m² 0 min 0 min 0 W/m² 12,9 km/h (3 Bft) 92,59 %
23.01.2026 01:52 3,3 °C 2,8 °C -1,1 °C 91 % 996,2 hPa 0,0 l/m² 0 min 0 min 0 W/m² 16,1 km/h (3 Bft) 93,48 %
23.01.2026 01:54 3,3 °C 2,8 °C -1,1 °C 91 % 996,2 hPa 0,0 l/m² 0 min 0 min 0 W/m² 19,3 km/h (3 Bft) 97,56 %
23.01.2026 01:56 3,3 °C 2,8 °C -1,1 °C 91 % 996,2 hPa 0,0 l/m² 0 min 0 min 0 W/m² 22,5 km/h (4 Bft) 98,18 %
23.01.2026 01:58 3,2 °C 2,8 °C -1,1 °C 91 % 996,2 hPa 0,0 l/m² 0 min 0 min 0 W/m² 16,1 km/h (3 Bft) 97,87 %
23.01.2026 02:00 3,2 °C 2,8 °C -1,1 °C 91 % 996,2 hPa 0,0 l/m² 0 min 0 min 0 W/m² 22,5 km/h (4 Bft) 95,74 %
23.01.2026 02:02 3,2 °C 2,8 °C -1,1 °C 91 % 996,2 hPa 0,0 l/m² 0 min 0 min 0 W/m² 16,1 km/h (3 Bft) 100,00 %
23.01.2026 02:04 3,2 °C 2,8 °C -1,1 °C 91 % 996,2 hPa 0,0 l/m² 0 min 0 min 0 W/m² 16,1 km/h (3 Bft) 95,65 %
23.01.2026 02:08 3,2 °C 2,8 °C -1,1 °C 91 % 996,2 hPa 0,0 l/m² 0 min 0 min 0 W/m² 16,1 km/h (3 Bft) 97,12 %
23.01.2026 02:10 3,2 °C 2,8 °C -1,1 °C 91 % 996,1 hPa 0,0 l/m² 0 min 0 min 0 W/m² 12,9 km/h (3 Bft) 97,78 %
23.01.2026 02:12 3,2 °C 2,8 °C -1,1 °C 91 % 996,2 hPa 0,0 l/m² 0 min 0 min 0 W/m² 19,3 km/h (3 Bft) 97,50 %
23.01.2026 02:14 3,2 °C 2,8 °C -1,1 °C 91 % 996,2 hPa 0,0 l/m² 0 min 0 min 0 W/m² 12,9 km/h (3 Bft) 97,87 %
23.01.2026 02:16 3,2 °C 2,8 °C -1,1 °C 91 % 996,2 hPa 0,0 l/m² 0 min 0 min 0 W/m² 12,9 km/h (3 Bft) 97,83 %
23.01.2026 02:18 3,2 °C 2,8 °C -1,1 °C 91 % 996,2 hPa 0,0 l/m² 0 min 0 min 0 W/m² 6,4 km/h (2 Bft) 100,00 %
23.01.2026 02:20 3,2 °C 2,8 °C -1,1 °C 91 % 996,2 hPa 0,0 l/m² 0 min 0 min 0 W/m² 22,5 km/h (4 Bft) 100,00 %
23.01.2026 02:22 3,2 °C 2,8 °C -1,1 °C 91 % 996,2 hPa 0,0 l/m² 0 min 0 min 0 W/m² 19,3 km/h (3 Bft) 97,83 %
23.01.2026 02:24 3,2 °C 2,8 °C -1,1 °C 91 % 996,3 hPa 0,0 l/m² 0 min 0 min 0 W/m² 12,9 km/h (3 Bft) 100,00 %
23.01.2026 02:26 3,2 °C 2,8 °C -1,1 °C 91 % 996,2 hPa 0,0 l/m² 0 min 0 min 0 W/m² 22,5 km/h (4 Bft) 100,00 %
23.01.2026 02:28 3,2 °C 2,8 °C -1,1 °C 91 % 996,3 hPa 0,0 l/m² 0 min 0 min 0 W/m² 16,1 km/h (3 Bft) 95,74 %
23.01.2026 02:30 3,2 °C 2,8 °C -1,1 °C 91 % 996,2 hPa 0,0 l/m² 0 min 0 min 0 W/m² 22,5 km/h (4 Bft) 97,83 %
23.01.2026 02:32 3,2 °C 2,8 °C -1,1 °C 91 % 996,2 hPa 0,0 l/m² 0 min 0 min 0 W/m² 16,1 km/h (3 Bft) 100,00 %
23.01.2026 02:34 3,2 °C 2,8 °C -1,1 °C 91 % 996,2 hPa 0,0 l/m² 0 min 0 min 0 W/m² 16,1 km/h (3 Bft) 100,00 %
23.01.2026 02:36 3,1 °C 2,8 °C -1,1 °C 91 % 996,2 hPa 0,0 l/m² 0 min 0 min 0 W/m² 16,1 km/h (3 Bft) 100,00 %
23.01.2026 02:38 3,1 °C 2,8 °C -1,1 °C 91 % 996,2 hPa 0,0 l/m² 0 min 0 min 0 W/m² 16,1 km/h (3 Bft) 97,87 %
23.01.2026 02:40 3,2 °C 2,8 °C -1,1 °C 91 % 996,2 hPa 0,0 l/m² 0 min 0 min 0 W/m² 19,3 km/h (3 Bft) 100,00 %
23.01.2026 02:44 3,2 °C 2,8 °C -1,1 °C 91 % 996,2 hPa 0,0 l/m² 0 min 0 min 0 W/m² 19,3 km/h (3 Bft) 98,96 %
23.01.2026 02:48 3,2 °C 2,8 °C -1,1 °C 91 % 996,2 hPa 0,0 l/m² 0 min 0 min 0 W/m² 22,5 km/h (4 Bft) 97,85 %
23.01.2026 02:50 3,2 °C 2,8 °C -1,1 °C 91 % 996,2 hPa 0,0 l/m² 0 min 0 min 0 W/m² 25,7 km/h (4 Bft) 96,30 %
23.01.2026 02:54 3,2 °C 2,8 °C -1,1 °C 91 % 996,1 hPa 0,0 l/m² 0 min 0 min 0 W/m² 19,3 km/h (3 Bft) 97,70 %
23.01.2026 02:56 3,2 °C 2,8 °C -1,1 °C 91 % 996,1 hPa 0,0 l/m² 0 min 0 min 0 W/m² 16,1 km/h (3 Bft) 98,11 %
23.01.2026 03:00 3,2 °C 2,8 °C -1,1 °C 91 % 996,2 hPa 0,0 l/m² 0 min 0 min 0 W/m² 19,3 km/h (3 Bft) 97,70 %
23.01.2026 03:04 3,2 °C 2,8 °C -1,1 °C 91 % 996,1 hPa 0,0 l/m² 0 min 0 min 0 W/m² 22,5 km/h (4 Bft) 96,81 %
23.01.2026 03:07 3,2 °C 2,8 °C -1,1 °C 91 % 996,2 hPa 0,0 l/m² 0 min 0 min 0 W/m² 12,9 km/h (3 Bft) 95,89 %
23.01.2026 03:08 3,1 °C 2,8 °C -1,1 °C 91 % 996,1 hPa 0,0 l/m² 0 min 0 min 0 W/m² 12,9 km/h (3 Bft) 97,26 %
23.01.2026 03:10 3,1 °C 2,2 °C -1,1 °C 91 % 996,1 hPa 0,0 l/m² 0 min 0 min 0 W/m² 19,3 km/h (3 Bft) 100,00 %
23.01.2026 03:14 3,1 °C 2,2 °C -1,1 °C 91 % 996,1 hPa 0,0 l/m² 0 min 0 min 0 W/m² 9,7 km/h (2 Bft) 100,00 %
23.01.2026 03:18 3,1 °C 2,2 °C -1,1 °C 91 % 996,0 hPa 0,0 l/m² 0 min 0 min 0 W/m² 19,3 km/h (3 Bft) 96,97 %
23.01.2026 03:22 3,1 °C 2,2 °C -1,1 °C 91 % 996,1 hPa 0,0 l/m² 0 min 0 min 0 W/m² 12,9 km/h (3 Bft) 100,00 %
23.01.2026 03:24 3,1 °C 2,2 °C -1,1 °C 91 % 996,0 hPa 0,0 l/m² 0 min 0 min 0 W/m² 19,3 km/h (3 Bft) 97,56 %
23.01.2026 03:26 3,1 °C 2,2 °C -1,1 °C 91 % 996,0 hPa 0,0 l/m² 0 min 0 min 0 W/m² 16,1 km/h (3 Bft) 100,00 %
23.01.2026 03:28 3,1 °C 2,2 °C -1,7 °C 91 % 996,0 hPa 0,0 l/m² 0 min 0 min 0 W/m² 16,1 km/h (3 Bft) 97,92 %
23.01.2026 03:30 3,1 °C 2,2 °C -1,7 °C 91 % 996,0 hPa 0,0 l/m² 0 min 0 min 0 W/m² 16,1 km/h (3 Bft) 100,00 %
23.01.2026 03:32 3,1 °C 2,2 °C -1,7 °C 91 % 995,9 hPa 0,0 l/m² 0 min 0 min 0 W/m² 16,1 km/h (3 Bft) 97,96 %
23.01.2026 03:34 3,1 °C 2,2 °C -1,7 °C 91 % 995,9 hPa 0,0 l/m² 0 min 0 min 0 W/m² 16,1 km/h (3 Bft) 100,00 %
23.01.2026 03:36 3,1 °C 2,2 °C -1,7 °C 91 % 995,9 hPa 0,0 l/m² 0 min 0 min 0 W/m² 12,9 km/h (3 Bft) 100,00 %
23.01.2026 03:38 3,1 °C 2,2 °C -1,7 °C 91 % 995,8 hPa 0,0 l/m² 0 min 0 min 0 W/m² 6,4 km/h (2 Bft) 97,62 %
23.01.2026 03:40 3,1 °C 2,2 °C -1,7 °C 91 % 995,9 hPa 0,0 l/m² 0 min 0 min 0 W/m² 9,7 km/h (2 Bft) 98,08 %
23.01.2026 03:42 3,1 °C 2,2 °C -1,7 °C 91 % 995,9 hPa 0,0 l/m² 0 min 0 min 0 W/m² 12,9 km/h (3 Bft) 93,62 %
23.01.2026 03:46 3,0 °C 2,2 °C -1,7 °C 91 % 995,9 hPa 0,0 l/m² 0 min 0 min 0 W/m² 19,3 km/h (3 Bft) 96,59 %
23.01.2026 03:48 3,0 °C 2,2 °C -1,7 °C 91 % 995,9 hPa 0,0 l/m² 0 min 0 min 0 W/m² 12,9 km/h (3 Bft) 98,08 %
23.01.2026 03:50 3,0 °C 2,2 °C -1,7 °C 92 % 995,8 hPa 0,0 l/m² 0 min 0 min 0 W/m² 12,9 km/h (3 Bft) 97,87 %
23.01.2026 03:52 3,0 °C 2,2 °C -1,7 °C 92 % 995,9 hPa 0,0 l/m² 0 min 0 min 0 W/m² 16,1 km/h (3 Bft) 97,56 %
23.01.2026 03:54 3,0 °C 2,2 °C -1,7 °C 92 % 995,9 hPa 0,0 l/m² 0 min 0 min 0 W/m² 12,9 km/h (3 Bft) 96,00 %
23.01.2026 03:56 3,0 °C 2,2 °C -1,7 °C 92 % 995,8 hPa 0,0 l/m² 0 min 0 min 0 W/m² 12,9 km/h (3 Bft) 97,96 %
23.01.2026 03:58 3,0 °C 2,2 °C -1,7 °C 92 % 995,8 hPa 0,0 l/m² 0 min 0 min 0 W/m² 16,1 km/h (3 Bft) 97,56 %
23.01.2026 04:00 2,9 °C 2,2 °C -1,7 °C 92 % 995,8 hPa 0,0 l/m² 0 min 0 min 0 W/m² 19,3 km/h (3 Bft) 96,08 %
23.01.2026 04:02 2,9 °C 2,2 °C -1,7 °C 92 % 995,7 hPa 0,0 l/m² 0 min 0 min 0 W/m² 22,5 km/h (4 Bft) 93,55 %
23.01.2026 04:04 2,9 °C 2,2 °C -1,7 °C 92 % 995,7 hPa 0,0 l/m² 0 min 0 min 0 W/m² 12,9 km/h (3 Bft) 97,96 %
23.01.2026 04:10 2,9 °C 2,2 °C -1,7 °C 92 % 995,8 hPa 0,0 l/m² 0 min 0 min 0 W/m² 19,3 km/h (3 Bft) 100,00 %
23.01.2026 04:12 2,9 °C 2,2 °C -1,7 °C 92 % 995,8 hPa 0,0 l/m² 0 min 0 min 0 W/m² 12,9 km/h (3 Bft) 100,00 %
23.01.2026 04:14 2,9 °C 2,2 °C -1,7 °C 92 % 995,8 hPa 0,0 l/m² 0 min 0 min 0 W/m² 25,7 km/h (4 Bft) 100,00 %
23.01.2026 04:16 2,9 °C 2,2 °C -1,1 °C 92 % 995,7 hPa 0,0 l/m² 0 min 0 min 0 W/m² 12,9 km/h (3 Bft) 100,00 %
23.01.2026 04:18 2,9 °C 2,2 °C -1,1 °C 92 % 995,7 hPa 0,0 l/m² 0 min 0 min 0 W/m² 22,5 km/h (4 Bft) 100,00 %
23.01.2026 04:20 2,9 °C 2,2 °C -1,1 °C 92 % 995,7 hPa 0,0 l/m² 0 min 0 min 0 W/m² 22,5 km/h (4 Bft) 97,83 %
23.01.2026 04:22 2,9 °C 2,2 °C -1,1 °C 92 % 995,7 hPa 0,0 l/m² 0 min 0 min 0 W/m² 16,1 km/h (3 Bft) 97,67 %
23.01.2026 04:24 2,9 °C 2,2 °C -1,1 °C 92 % 995,8 hPa 0,0 l/m² 0 min 0 min 0 W/m² 16,1 km/h (3 Bft) 100,00 %
23.01.2026 04:26 2,9 °C 2,2 °C -1,1 °C 92 % 995,8 hPa 0,0 l/m² 0 min 0 min 0 W/m² 19,3 km/h (3 Bft) 97,83 %
23.01.2026 04:28 2,9 °C 2,8 °C -1,1 °C 92 % 995,8 hPa 0,0 l/m² 0 min 0 min 0 W/m² 25,7 km/h (4 Bft) 97,73 %
23.01.2026 04:30 2,9 °C 2,8 °C -1,1 °C 92 % 995,9 hPa 0,0 l/m² 0 min 0 min 0 W/m² 16,1 km/h (3 Bft) 97,44 %
23.01.2026 04:32 2,9 °C 2,8 °C -1,1 °C 92 % 995,8 hPa 0,0 l/m² 0 min 0 min 0 W/m² 19,3 km/h (3 Bft) 98,28 %
23.01.2026 04:34 2,9 °C 2,8 °C -1,1 °C 92 % 995,8 hPa 0,0 l/m² 0 min 0 min 0 W/m² 16,1 km/h (3 Bft) 97,87 %
23.01.2026 04:36 3,0 °C 2,8 °C -1,1 °C 92 % 995,8 hPa 0,0 l/m² 0 min 0 min 0 W/m² 12,9 km/h (3 Bft) 97,78 %
23.01.2026 04:38 3,0 °C 2,8 °C -1,1 °C 92 % 995,9 hPa 0,0 l/m² 0 min 0 min 0 W/m² 16,1 km/h (3 Bft) 95,56 %
23.01.2026 04:40 3,0 °C 2,8 °C -1,1 °C 92 % 995,9 hPa 0,0 l/m² 0 min 0 min 0 W/m² 12,9 km/h (3 Bft) 97,44 %
23.01.2026 04:42 3,0 °C 2,8 °C -1,1 °C 92 % 995,8 hPa 0,0 l/m² 0 min 0 min 0 W/m² 16,1 km/h (3 Bft) 93,10 %
23.01.2026 04:46 3,1 °C 2,8 °C -1,1 °C 92 % 995,8 hPa 0,0 l/m² 0 min 0 min 0 W/m² 19,3 km/h (3 Bft) 95,56 %
23.01.2026 04:50 3,1 °C 2,8 °C -1,1 °C 92 % 995,8 hPa 0,0 l/m² 0 min 0 min 0 W/m² 19,3 km/h (3 Bft) 92,63 %
23.01.2026 04:52 3,1 °C 2,8 °C -1,7 °C 91 % 995,8 hPa 0,0 l/m² 0 min 0 min 0 W/m² 16,1 km/h (3 Bft) 95,45 %
23.01.2026 04:54 3,1 °C 2,8 °C -1,7 °C 91 % 995,8 hPa 0,0 l/m² 0 min 2 min 0 W/m² 16,1 km/h (3 Bft) 92,16 %
23.01.2026 04:56 3,1 °C 2,8 °C -1,7 °C 91 % 995,8 hPa 0,0 l/m² 0 min 0 min 0 W/m² 12,9 km/h (3 Bft) 95,83 %
23.01.2026 04:58 3,1 °C 2,8 °C -1,7 °C 91 % 995,8 hPa 0,0 l/m² 0 min 2 min 0 W/m² 16,1 km/h (3 Bft) 95,35 %
23.01.2026 05:00 3,1 °C 2,8 °C -1,7 °C 91 % 995,9 hPa 0,0 l/m² 0 min 2 min 0 W/m² 16,1 km/h (3 Bft) 94,87 %
23.01.2026 05:02 3,1 °C 2,2 °C -1,7 °C 91 % 995,8 hPa 0,0 l/m² 0 min 0 min 0 W/m² 16,1 km/h (3 Bft) 95,74 %
23.01.2026 05:06 3,1 °C 2,2 °C -1,7 °C 91 % 995,8 hPa 0,0 l/m² 0 min 0 min 0 W/m² 19,3 km/h (3 Bft) 95,24 %
23.01.2026 05:08 3,1 °C 2,2 °C -1,7 °C 91 % 995,9 hPa 0,0 l/m² 0 min 0 min 0 W/m² 6,4 km/h (2 Bft) 95,83 %
23.01.2026 05:09 3,1 °C 2,2 °C -1,7 °C 91 % 995,8 hPa 0,0 l/m² 0 min 0 min 0 W/m² 6,4 km/h (2 Bft) 96,48 %
23.01.2026 05:10 3,1 °C 2,2 °C -1,7 °C 91 % 995,8 hPa 0,0 l/m² 0 min 0 min 0 W/m² 16,1 km/h (3 Bft) 97,37 %
23.01.2026 05:14 3,1 °C 2,2 °C -1,7 °C 91 % 995,7 hPa 0,0 l/m² 0 min 0 min 0 W/m² 12,9 km/h (3 Bft) 73,21 %
23.01.2026 05:16 3,1 °C 2,2 °C -1,7 °C 91 % 995,7 hPa 0,0 l/m² 0 min 0 min 0 W/m² 16,1 km/h (3 Bft) 61,90 %
23.01.2026 05:18 3,0 °C 2,2 °C -1,7 °C 91 % 995,7 hPa 0,0 l/m² 0 min 0 min 0 W/m² 16,1 km/h (3 Bft) 97,87 %
23.01.2026 05:20 3,0 °C 2,2 °C -1,7 °C 91 % 995,7 hPa 0,0 l/m² 0 min 0 min 0 W/m² 12,9 km/h (3 Bft) 100,00 %
23.01.2026 05:22 3,0 °C 2,2 °C -1,7 °C 91 % 995,8 hPa 0,0 l/m² 0 min 0 min 0 W/m² 9,7 km/h (2 Bft) 100,00 %
23.01.2026 05:24 3,0 °C 2,2 °C -1,7 °C 91 % 995,8 hPa 0,0 l/m² 0 min 0 min 0 W/m² 12,9 km/h (3 Bft) 100,00 %
23.01.2026 05:26 3,0 °C 2,2 °C -1,7 °C 91 % 995,8 hPa 0,0 l/m² 0 min 0 min 0 W/m² 9,7 km/h (2 Bft) 100,00 %
23.01.2026 05:28 3,0 °C 2,2 °C -1,7 °C 91 % 995,8 hPa 0,0 l/m² 0 min 0 min 0 W/m² 16,1 km/h (3 Bft) 100,00 %
23.01.2026 05:30 2,9 °C 2,2 °C -1,7 °C 91 % 995,9 hPa 0,0 l/m² 0 min 0 min 0 W/m² 12,9 km/h (3 Bft) 100,00 %
23.01.2026 05:32 3,0 °C 2,2 °C -1,7 °C 91 % 995,8 hPa 0,0 l/m² 0 min 0 min 0 W/m² 9,7 km/h (2 Bft) 100,00 %
23.01.2026 05:34 3,0 °C 2,2 °C -1,7 °C 91 % 995,8 hPa 0,0 l/m² 0 min 0 min 0 W/m² 9,7 km/h (2 Bft) 100,00 %
23.01.2026 05:36 3,0 °C 2,2 °C -1,7 °C 91 % 995,8 hPa 0,0 l/m² 0 min 0 min 0 W/m² 16,1 km/h (3 Bft) 100,00 %
23.01.2026 05:38 3,0 °C 2,2 °C -1,7 °C 91 % 995,8 hPa 0,0 l/m² 0 min 0 min 0 W/m² 16,1 km/h (3 Bft) 100,00 %
23.01.2026 05:40 3,0 °C 2,2 °C -1,7 °C 91 % 995,8 hPa 0,0 l/m² 0 min 0 min 0 W/m² 12,9 km/h (3 Bft) 100,00 %
23.01.2026 05:42 3,0 °C 2,2 °C -1,7 °C 91 % 995,8 hPa 0,0 l/m² 0 min 0 min 0 W/m² 12,9 km/h (3 Bft) 97,50 %
23.01.2026 05:44 3,0 °C 2,2 °C -1,7 °C 91 % 995,8 hPa 0,0 l/m² 0 min 0 min 0 W/m² 16,1 km/h (3 Bft) 100,00 %
23.01.2026 05:46 3,0 °C 2,2 °C -1,7 °C 91 % 995,8 hPa 0,0 l/m² 0 min 0 min 0 W/m² 12,9 km/h (3 Bft) 100,00 %
23.01.2026 05:48 2,9 °C 2,2 °C -1,7 °C 91 % 995,8 hPa 0,0 l/m² 0 min 0 min 0 W/m² 12,9 km/h (3 Bft) 97,73 %
23.01.2026 05:50 2,9 °C 2,2 °C -1,7 °C 91 % 995,8 hPa 0,0 l/m² 0 min 0 min 0 W/m² 16,1 km/h (3 Bft) 94,87 %
23.01.2026 05:52 2,9 °C 2,2 °C -1,1 °C 91 % 995,8 hPa 0,0 l/m² 0 min 0 min 0 W/m² 22,5 km/h (4 Bft) 98,28 %
23.01.2026 05:54 2,9 °C 2,2 °C -1,1 °C 91 % 995,7 hPa 0,0 l/m² 0 min 0 min 0 W/m² 16,1 km/h (3 Bft) 100,00 %
23.01.2026 05:56 2,9 °C 2,2 °C -1,1 °C 91 % 995,7 hPa 0,0 l/m² 0 min 0 min 0 W/m² 16,1 km/h (3 Bft) 100,00 %
23.01.2026 05:58 2,9 °C 2,2 °C -1,1 °C 91 % 995,7 hPa 0,0 l/m² 0 min 0 min 0 W/m² 19,3 km/h (3 Bft) 100,00 %
23.01.2026 06:00 2,9 °C 2,2 °C -1,1 °C 91 % 995,7 hPa 0,0 l/m² 0 min 0 min 0 W/m² 16,1 km/h (3 Bft) 97,50 %
23.01.2026 06:02 2,9 °C 2,2 °C -1,1 °C 91 % 995,6 hPa 0,0 l/m² 0 min 0 min 0 W/m² 16,1 km/h (3 Bft) 98,28 %
23.01.2026 06:04 2,9 °C 2,2 °C -1,1 °C 91 % 995,6 hPa 0,0 l/m² 0 min 0 min 0 W/m² 19,3 km/h (3 Bft) 97,83 %
23.01.2026 06:07 2,9 °C 2,2 °C -1,1 °C 91 % 995,7 hPa 0,0 l/m² 0 min 0 min 0 W/m² 19,3 km/h (3 Bft) 97,83 %
23.01.2026 06:10 2,9 °C 2,2 °C -1,7 °C 91 % 995,7 hPa 0,0 l/m² 0 min 0 min 0 W/m² 19,3 km/h (3 Bft) 75,56 %
23.01.2026 06:12 2,9 °C 2,2 °C -1,7 °C 91 % 995,7 hPa 0,0 l/m² 0 min 0 min 0 W/m² 16,1 km/h (3 Bft) 94,74 %
23.01.2026 06:16 2,9 °C 2,2 °C -1,7 °C 91 % 995,7 hPa 0,0 l/m² 0 min 0 min 0 W/m² 16,1 km/h (3 Bft) 95,45 %
23.01.2026 06:18 2,9 °C 2,2 °C -1,7 °C 91 % 995,7 hPa 0,0 l/m² 0 min 0 min 0 W/m² 22,5 km/h (4 Bft) 94,83 %
23.01.2026 06:20 2,9 °C 2,2 °C -1,1 °C 91 % 995,7 hPa 0,0 l/m² 0 min 0 min 0 W/m² 12,9 km/h (3 Bft) 97,78 %
23.01.2026 06:22 2,9 °C 2,2 °C -1,1 °C 91 % 995,8 hPa 0,0 l/m² 0 min 0 min 0 W/m² 16,1 km/h (3 Bft) 97,78 %
23.01.2026 06:24 2,9 °C 2,2 °C -1,1 °C 90 % 995,8 hPa 0,0 l/m² 0 min 0 min 0 W/m² 19,3 km/h (3 Bft) 97,44 %
23.01.2026 06:26 2,9 °C 2,2 °C -1,1 °C 90 % 995,8 hPa 0,0 l/m² 0 min 0 min 0 W/m² 12,9 km/h (3 Bft) 98,28 %
23.01.2026 06:28 2,9 °C 2,2 °C -1,1 °C 91 % 995,7 hPa 0,0 l/m² 0 min 0 min 0 W/m² 16,1 km/h (3 Bft) 97,83 %
23.01.2026 06:30 2,9 °C 2,8 °C -1,1 °C 91 % 995,7 hPa 0,0 l/m² 0 min 0 min 0 W/m² 16,1 km/h (3 Bft) 95,35 %
23.01.2026 06:32 2,9 °C 2,8 °C -1,1 °C 91 % 995,7 hPa 0,0 l/m² 0 min 0 min 0 W/m² 22,5 km/h (4 Bft) 92,50 %
23.01.2026 06:34 2,9 °C 2,8 °C -1,1 °C 91 % 995,7 hPa 0,0 l/m² 0 min 0 min 0 W/m² 12,9 km/h (3 Bft) 95,74 %
23.01.2026 06:36 2,9 °C 2,8 °C -1,1 °C 91 % 995,8 hPa 0,0 l/m² 0 min 0 min 0 W/m² 22,5 km/h (4 Bft) 96,61 %
23.01.2026 06:38 2,9 °C 2,8 °C -1,1 °C 91 % 995,8 hPa 0,0 l/m² 0 min 0 min 0 W/m² 12,9 km/h (3 Bft) 93,18 %
23.01.2026 06:40 3,0 °C 2,8 °C -1,1 °C 90 % 995,8 hPa 0,0 l/m² 0 min 0 min 0 W/m² 16,1 km/h (3 Bft) 97,73 %
23.01.2026 06:42 3,0 °C 2,8 °C -1,1 °C 90 % 995,8 hPa 0,0 l/m² 0 min 0 min 0 W/m² 16,1 km/h (3 Bft) 95,00 %
23.01.2026 06:44 3,0 °C 2,8 °C -1,1 °C 90 % 995,7 hPa 0,0 l/m² 0 min 0 min 0 W/m² 12,9 km/h (3 Bft) 98,31 %
23.01.2026 06:46 3,0 °C 2,8 °C -1,1 °C 90 % 995,8 hPa 0,0 l/m² 0 min 0 min 0 W/m² 19,3 km/h (3 Bft) 97,78 %
23.01.2026 06:48 3,0 °C 2,8 °C -1,1 °C 90 % 995,8 hPa 0,0 l/m² 0 min 0 min 0 W/m² 16,1 km/h (3 Bft) 97,78 %
23.01.2026 06:50 3,0 °C 2,8 °C -1,1 °C 90 % 995,8 hPa 0,0 l/m² 0 min 0 min 0 W/m² 16,1 km/h (3 Bft) 97,44 %
23.01.2026 06:52 3,1 °C 2,8 °C -1,1 °C 90 % 995,8 hPa 0,0 l/m² 0 min 0 min 0 W/m² 12,9 km/h (3 Bft) 93,48 %
23.01.2026 06:54 3,0 °C 2,8 °C -1,1 °C 90 % 995,8 hPa 0,0 l/m² 0 min 0 min 0 W/m² 16,1 km/h (3 Bft) 98,28 %
23.01.2026 06:56 3,1 °C 2,8 °C -1,1 °C 90 % 995,9 hPa 0,0 l/m² 0 min 0 min 0 W/m² 16,1 km/h (3 Bft) 97,73 %
23.01.2026 06:58 3,1 °C 2,8 °C -1,1 °C 90 % 995,8 hPa 0,0 l/m² 0 min 0 min 0 W/m² 6,4 km/h (2 Bft) 97,44 %
23.01.2026 07:00 3,1 °C 2,8 °C -1,1 °C 90 % 995,8 hPa 0,0 l/m² 0 min 0 min 0 W/m² 16,1 km/h (3 Bft) 97,87 %
23.01.2026 07:02 3,1 °C 2,8 °C -1,1 °C 90 % 995,9 hPa 0,0 l/m² 0 min 0 min 0 W/m² 6,4 km/h (2 Bft) 95,74 %
23.01.2026 07:04 3,1 °C 2,8 °C -1,1 °C 90 % 995,8 hPa 0,0 l/m² 0 min 0 min 0 W/m² 19,3 km/h (3 Bft) 98,25 %
23.01.2026 07:06 3,1 °C 2,8 °C -1,1 °C 90 % 995,8 hPa 0,0 l/m² 0 min 0 min 0 W/m² 12,9 km/h (3 Bft) 100,00 %
23.01.2026 07:08 3,1 °C 2,8 °C -1,1 °C 90 % 995,8 hPa 0,0 l/m² 0 min 0 min 0 W/m² 12,9 km/h (3 Bft) 100,00 %
23.01.2026 07:10 3,1 °C 2,8 °C -1,1 °C 90 % 995,8 hPa 0,0 l/m² 0 min 0 min 0 W/m² 16,1 km/h (3 Bft) 97,22 %
23.01.2026 07:12 3,1 °C 2,8 °C -1,1 °C 90 % 995,8 hPa 0,0 l/m² 0 min 0 min 0 W/m² 12,9 km/h (3 Bft) 100,00 %
23.01.2026 07:14 3,1 °C 2,8 °C -1,1 °C 90 % 995,8 hPa 0,0 l/m² 0 min 0 min 0 W/m² 19,3 km/h (3 Bft) 100,00 %
23.01.2026 07:16 3,1 °C 2,8 °C -1,1 °C 90 % 995,8 hPa 0,0 l/m² 0 min 0 min 0 W/m² 12,9 km/h (3 Bft) 100,00 %
23.01.2026 07:18 3,1 °C 2,8 °C -1,1 °C 90 % 995,8 hPa 0,0 l/m² 0 min 0 min 0 W/m² 19,3 km/h (3 Bft) 100,00 %
23.01.2026 07:20 3,1 °C 2,8 °C -1,1 °C 90 % 995,8 hPa 0,0 l/m² 0 min 0 min 0 W/m² 12,9 km/h (3 Bft) 100,00 %
23.01.2026 07:22 3,1 °C 2,8 °C -1,1 °C 89 % 995,8 hPa 0,0 l/m² 0 min 0 min 0 W/m² 16,1 km/h (3 Bft) 100,00 %
23.01.2026 07:24 3,1 °C 2,8 °C -1,1 °C 89 % 995,8 hPa 0,0 l/m² 0 min 0 min 0 W/m² 12,9 km/h (3 Bft) 97,56 %
23.01.2026 07:26 3,1 °C 2,8 °C -1,1 °C 89 % 995,7 hPa 0,0 l/m² 0 min 0 min 0 W/m² 12,9 km/h (3 Bft) 100,00 %
23.01.2026 07:28 3,1 °C 2,8 °C -1,1 °C 89 % 995,8 hPa 0,0 l/m² 0 min 0 min 0 W/m² 12,9 km/h (3 Bft) 100,00 %
23.01.2026 07:30 3,1 °C 2,8 °C -1,1 °C 89 % 995,8 hPa 0,0 l/m² 0 min 0 min 0 W/m² 6,4 km/h (2 Bft) 100,00 %
23.01.2026 07:32 3,1 °C 2,8 °C -1,1 °C 89 % 995,7 hPa 0,0 l/m² 0 min 0 min 0 W/m² 6,4 km/h (2 Bft) 97,87 %
23.01.2026 07:34 3,1 °C 2,8 °C -1,1 °C 89 % 995,7 hPa 0,0 l/m² 0 min 0 min 0 W/m² 6,4 km/h (2 Bft) 94,74 %
23.01.2026 07:36 3,2 °C 2,8 °C -1,1 °C 89 % 995,7 hPa 0,0 l/m² 0 min 0 min 0 W/m² 16,1 km/h (3 Bft) 95,74 %
23.01.2026 07:38 3,2 °C 2,8 °C -1,1 °C 89 % 995,8 hPa 0,0 l/m² 0 min 0 min 0 W/m² 12,9 km/h (3 Bft) 97,22 %
23.01.2026 07:40 3,1 °C 2,8 °C -1,1 °C 89 % 995,7 hPa 0,0 l/m² 0 min 0 min 0 W/m² 12,9 km/h (3 Bft) 97,87 %
23.01.2026 07:42 3,2 °C 2,8 °C -1,1 °C 89 % 995,8 hPa 0,0 l/m² 0 min 0 min 0 W/m² 12,9 km/h (3 Bft) 98,28 %
23.01.2026 07:44 3,2 °C 2,8 °C -1,1 °C 89 % 995,7 hPa 0,0 l/m² 0 min 0 min 0 W/m² 16,1 km/h (3 Bft) 97,92 %
23.01.2026 07:46 3,2 °C 2,8 °C -1,1 °C 89 % 995,7 hPa 0,0 l/m² 0 min 0 min 0 W/m² 16,1 km/h (3 Bft) 97,14 %
23.01.2026 07:48 3,2 °C 2,8 °C -1,1 °C 89 % 995,8 hPa 0,0 l/m² 0 min 0 min 0 W/m² 12,9 km/h (3 Bft) 97,87 %
23.01.2026 07:50 3,2 °C 2,8 °C -1,1 °C 89 % 995,7 hPa 0,0 l/m² 0 min 0 min 0 W/m² 12,9 km/h (3 Bft) 97,83 %
23.01.2026 07:52 3,2 °C 2,8 °C -1,1 °C 89 % 995,8 hPa 0,0 l/m² 0 min 0 min 0 W/m² 12,9 km/h (3 Bft) 95,74 %
23.01.2026 07:54 3,2 °C 2,8 °C -1,1 °C 89 % 995,7 hPa 0,0 l/m² 0 min 0 min 0 W/m² 6,4 km/h (2 Bft) 98,28 %
23.01.2026 07:56 3,2 °C 2,8 °C -1,1 °C 89 % 995,8 hPa 0,0 l/m² 0 min 0 min 0 W/m² 16,1 km/h (3 Bft) 97,83 %
23.01.2026 07:58 3,2 °C 2,8 °C -1,1 °C 89 % 995,7 hPa 0,0 l/m² 0 min 0 min 0 W/m² 12,9 km/h (3 Bft) 97,87 %
23.01.2026 08:00 3,3 °C 2,8 °C -1,1 °C 89 % 995,8 hPa 0,0 l/m² 0 min 0 min 0 W/m² 16,1 km/h (3 Bft) 97,83 %
23.01.2026 08:02 3,3 °C 2,8 °C -1,1 °C 89 % 995,8 hPa 0,0 l/m² 0 min 0 min 0 W/m² 16,1 km/h (3 Bft) 95,74 %
23.01.2026 08:04 3,3 °C 2,8 °C -1,1 °C 88 % 995,7 hPa 0,0 l/m² 0 min 0 min 0 W/m² 12,9 km/h (3 Bft) 97,37 %
23.01.2026 08:08 3,3 °C 2,8 °C -1,1 °C 88 % 995,7 hPa 0,0 l/m² 0 min 0 min 0 W/m² 19,3 km/h (3 Bft) 96,81 %
23.01.2026 08:10 3,3 °C 2,8 °C -1,1 °C 88 % 995,8 hPa 0,0 l/m² 0 min 0 min 0 W/m² 25,7 km/h (4 Bft) 98,11 %
23.01.2026 08:12 3,3 °C 2,8 °C -1,1 °C 88 % 995,9 hPa 0,0 l/m² 0 min 0 min 0 W/m² 19,3 km/h (3 Bft) 97,56 %
23.01.2026 08:14 3,3 °C 2,8 °C -1,1 °C 88 % 995,9 hPa 0,0 l/m² 0 min 0 min 0 W/m² 12,9 km/h (3 Bft) 97,83 %
23.01.2026 08:16 3,3 °C 2,8 °C -1,1 °C 88 % 995,9 hPa 0,0 l/m² 0 min 0 min 0 W/m² 12,9 km/h (3 Bft) 96,55 %
23.01.2026 08:18 3,3 °C 2,8 °C -1,1 °C 88 % 996,0 hPa 0,0 l/m² 0 min 0 min 0 W/m² 16,1 km/h (3 Bft) 95,35 %
23.01.2026 08:20 3,3 °C 2,8 °C -1,1 °C 88 % 996,0 hPa 0,0 l/m² 0 min 0 min 0 W/m² 12,9 km/h (3 Bft) 97,50 %
23.01.2026 08:22 3,3 °C 2,8 °C -1,1 °C 88 % 995,8 hPa 0,0 l/m² 0 min 0 min 0 W/m² 16,1 km/h (3 Bft) 98,08 %
23.01.2026 08:24 3,4 °C 2,8 °C -1,1 °C 88 % 995,9 hPa 0,0 l/m² 0 min 0 min 0 W/m² 22,5 km/h (4 Bft) 97,73 %
23.01.2026 08:26 3,4 °C 2,8 °C -1,1 °C 88 % 995,9 hPa 0,0 l/m² 0 min 0 min 0 W/m² 16,1 km/h (3 Bft) 95,65 %
23.01.2026 08:28 3,4 °C 2,8 °C -0,6 °C 88 % 995,8 hPa 0,0 l/m² 0 min 0 min 0 W/m² 25,7 km/h (4 Bft) 92,86 %
23.01.2026 08:30 3,4 °C 2,8 °C -0,6 °C 87 % 995,8 hPa 0,0 l/m² 0 min 0 min 0 W/m² 16,1 km/h (3 Bft) 93,33 %
23.01.2026 08:32 3,4 °C 2,8 °C -0,6 °C 87 % 995,8 hPa 0,0 l/m² 0 min 0 min 0 W/m² 16,1 km/h (3 Bft) 95,12 %
23.01.2026 08:34 3,4 °C 2,8 °C -0,6 °C 87 % 995,8 hPa 0,0 l/m² 0 min 0 min 2 W/m² 16,1 km/h (3 Bft) 94,34 %
23.01.2026 08:36 3,4 °C 2,8 °C -0,6 °C 87 % 995,9 hPa 0,0 l/m² 0 min 0 min 5 W/m² 12,9 km/h (3 Bft) 95,92 %
23.01.2026 08:38 3,4 °C 2,8 °C -0,6 °C 87 % 995,8 hPa 0,0 l/m² 0 min 0 min 7 W/m² 16,1 km/h (3 Bft) 94,44 %
23.01.2026 08:40 3,4 °C 2,8 °C -0,6 °C 87 % 995,8 hPa 0,0 l/m² 0 min 0 min 7 W/m² 22,5 km/h (4 Bft) 95,65 %
23.01.2026 08:42 3,4 °C 2,8 °C -0,6 °C 87 % 995,8 hPa 0,0 l/m² 0 min 0 min 7 W/m² 16,1 km/h (3 Bft) 95,83 %
23.01.2026 08:44 3,4 °C 2,8 °C -0,6 °C 87 % 995,9 hPa 0,0 l/m² 0 min 0 min 9 W/m² 19,3 km/h (3 Bft) 95,74 %
23.01.2026 08:46 3,5 °C 3,3 °C -0,6 °C 87 % 995,8 hPa 0,0 l/m² 0 min 0 min 11 W/m² 25,7 km/h (4 Bft) 95,74 %
23.01.2026 08:48 3,5 °C 3,3 °C -0,6 °C 87 % 995,9 hPa 0,0 l/m² 0 min 0 min 12 W/m² 19,3 km/h (3 Bft) 95,83 %
23.01.2026 08:52 3,6 °C 3,3 °C -0,6 °C 87 % 996,0 hPa 0,0 l/m² 0 min 0 min 15 W/m² 22,5 km/h (4 Bft) 95,74 %
23.01.2026 08:56 3,6 °C 3,3 °C -0,6 °C 87 % 996,0 hPa 0,0 l/m² 0 min 0 min 17 W/m² 16,1 km/h (3 Bft) 69,44 %
23.01.2026 08:58 3,6 °C 3,3 °C -0,6 °C 87 % 996,0 hPa 0,0 l/m² 0 min 0 min 19 W/m² 16,1 km/h (3 Bft) 97,87 %
23.01.2026 09:00 3,6 °C 3,3 °C -0,6 °C 86 % 996,0 hPa 0,0 l/m² 0 min 0 min 19 W/m² 22,5 km/h (4 Bft) 100,00 %
23.01.2026 09:04 3,6 °C 3,3 °C -0,6 °C 87 % 996,0 hPa 0,0 l/m² 0 min 0 min 19 W/m² 16,1 km/h (3 Bft) 94,44 %
23.01.2026 09:07 3,6 °C 3,3 °C -0,6 °C 86 % 996,0 hPa 0,0 l/m² 0 min 0 min 22 W/m² 19,3 km/h (3 Bft) 97,44 %
23.01.2026 09:08 3,6 °C 3,3 °C -0,6 °C 86 % 996,0 hPa 0,0 l/m² 0 min 0 min 25 W/m² 16,1 km/h (3 Bft) 96,38 %
23.01.2026 09:10 3,6 °C 3,3 °C -0,6 °C 86 % 996,0 hPa 0,0 l/m² 0 min 0 min 24 W/m² 22,5 km/h (4 Bft) 100,00 %
23.01.2026 09:14 3,6 °C 3,3 °C -0,6 °C 86 % 996,0 hPa 0,0 l/m² 0 min 0 min 30 W/m² 19,3 km/h (3 Bft) 100,00 %
23.01.2026 09:16 3,6 °C 3,3 °C -0,6 °C 86 % 996,0 hPa 0,0 l/m² 0 min 0 min 30 W/m² 12,9 km/h (3 Bft) 96,42 %
23.01.2026 09:22 3,7 °C 3,3 °C -0,6 °C 86 % 996,1 hPa 0,0 l/m² 0 min 0 min 43 W/m² 22,5 km/h (4 Bft) 100,00 %
23.01.2026 09:26 3,7 °C 3,3 °C -0,6 °C 86 % 996,1 hPa 0,0 l/m² 0 min 0 min 42 W/m² 16,1 km/h (3 Bft) 100,00 %
23.01.2026 09:30 3,7 °C 3,3 °C -0,6 °C 86 % 996,1 hPa 0,0 l/m² 0 min 0 min 40 W/m² 19,3 km/h (3 Bft) 100,00 %
23.01.2026 09:34 3,7 °C 3,3 °C -0,6 °C 86 % 996,1 hPa 0,0 l/m² 0 min 0 min 46 W/m² 19,3 km/h (3 Bft) 100,00 %
23.01.2026 09:38 3,8 °C 3,3 °C -0,6 °C 86 % 996,1 hPa 0,0 l/m² 0 min 0 min 50 W/m² 19,3 km/h (3 Bft) 100,00 %
23.01.2026 09:42 3,8 °C 3,3 °C -0,6 °C 86 % 996,2 hPa 0,0 l/m² 0 min 0 min 52 W/m² 12,9 km/h (3 Bft) 98,94 %
23.01.2026 09:46 3,8 °C 3,3 °C -0,6 °C 86 % 996,2 hPa 0,0 l/m² 0 min 0 min 57 W/m² 12,9 km/h (3 Bft) 100,00 %
23.01.2026 09:50 3,8 °C 3,9 °C -0,6 °C 86 % 996,2 hPa 0,0 l/m² 0 min 0 min 55 W/m² 19,3 km/h (3 Bft) 100,00 %
23.01.2026 09:54 3,8 °C 3,9 °C -0,6 °C 86 % 996,2 hPa 0,0 l/m² 0 min 0 min 53 W/m² 19,3 km/h (3 Bft) 100,00 %
23.01.2026 09:58 3,8 °C 3,9 °C -0,6 °C 85 % 996,2 hPa 0,0 l/m² 0 min 0 min 60 W/m² 16,1 km/h (3 Bft) 98,92 %
23.01.2026 10:02 3,9 °C 3,9 °C 0,0 °C 85 % 996,3 hPa 0,0 l/m² 0 min 0 min 65 W/m² 12,9 km/h (3 Bft) 98,94 %
23.01.2026 10:06 3,9 °C 3,9 °C 0,0 °C 85 % 996,3 hPa 0,0 l/m² 0 min 0 min 64 W/m² 25,7 km/h (4 Bft) 98,91 %
23.01.2026 10:10 3,9 °C 3,9 °C 0,0 °C 85 % 996,3 hPa 0,0 l/m² 0 min 0 min 57 W/m² 22,5 km/h (4 Bft) 98,98 %
23.01.2026 10:14 4,0 °C 3,9 °C 0,0 °C 85 % 996,3 hPa 0,0 l/m² 0 min 0 min 47 W/m² 16,1 km/h (3 Bft) 100,00 %
23.01.2026 10:16 4,0 °C 3,9 °C 0,0 °C 85 % 996,3 hPa 0,0 l/m² 0 min 0 min 47 W/m² 16,1 km/h (3 Bft) 100,00 %
23.01.2026 10:17 4,0 °C 3,9 °C 0,0 °C 85 % 996,3 hPa 0,0 l/m² 0 min 0 min 50 W/m² 9,7 km/h (2 Bft) 96,98 %
23.01.2026 10:22 4,0 °C 3,9 °C 0,0 °C 85 % 996,3 hPa 0,0 l/m² 0 min 0 min 63 W/m² 19,3 km/h (3 Bft) 97,50 %
23.01.2026 10:26 4,1 °C 3,9 °C 0,0 °C 84 % 996,3 hPa 0,0 l/m² 0 min 0 min 75 W/m² 22,5 km/h (4 Bft) 96,77 %
23.01.2026 10:30 4,1 °C 3,9 °C 0,0 °C 84 % 996,2 hPa 0,0 l/m² 0 min 0 min 87 W/m² 16,1 km/h (3 Bft) 94,68 %
23.01.2026 10:34 4,1 °C 4,4 °C 0,0 °C 84 % 996,2 hPa 0,0 l/m² 0 min 0 min 109 W/m² 16,1 km/h (3 Bft) 94,68 %
23.01.2026 10:36 4,1 °C 4,4 °C 0,0 °C 84 % 996,2 hPa 0,0 l/m² 2 min 0 min 153 W/m² 19,3 km/h (3 Bft) 96,55 %
23.01.2026 10:38 4,2 °C 4,4 °C 0,0 °C 84 % 996,2 hPa 0,0 l/m² 0 min 0 min 113 W/m² 16,1 km/h (3 Bft) 95,35 %
23.01.2026 10:40 4,2 °C 4,4 °C 0,0 °C 84 % 996,1 hPa 0,0 l/m² 0 min 0 min 124 W/m² 19,3 km/h (3 Bft) 95,92 %
23.01.2026 10:42 4,3 °C 5,0 °C 0,6 °C 84 % 996,1 hPa 0,0 l/m² 0 min 0 min 137 W/m² 12,9 km/h (3 Bft) 94,59 %
23.01.2026 10:44 4,3 °C 5,0 °C 0,6 °C 84 % 996,1 hPa 0,0 l/m² 0 min 0 min 131 W/m² 22,5 km/h (4 Bft) 94,34 %
23.01.2026 10:46 4,3 °C 5,0 °C 0,6 °C 83 % 996,1 hPa 0,0 l/m² 0 min 0 min 137 W/m² 19,3 km/h (3 Bft) 94,12 %
23.01.2026 10:48 4,4 °C 5,0 °C 0,6 °C 84 % 996,2 hPa 0,0 l/m² 0 min 0 min 129 W/m² 22,5 km/h (4 Bft) 97,67 %
23.01.2026 10:50 4,4 °C 5,0 °C 0,6 °C 83 % 996,1 hPa 0,0 l/m² 0 min 0 min 122 W/m² 25,7 km/h (4 Bft) 92,31 %
23.01.2026 10:52 4,5 °C 5,0 °C 0,6 °C 83 % 996,1 hPa 0,0 l/m² 0 min 0 min 122 W/m² 19,3 km/h (3 Bft) 95,45 %
23.01.2026 10:54 4,6 °C 5,0 °C 0,6 °C 83 % 996,1 hPa 0,0 l/m² 0 min 0 min 120 W/m² 22,5 km/h (4 Bft) 94,74 %
23.01.2026 10:56 4,6 °C 5,0 °C 0,6 °C 83 % 996,1 hPa 0,0 l/m² 0 min 0 min 121 W/m² 25,7 km/h (4 Bft) 60,38 %
23.01.2026 10:58 4,6 °C 5,0 °C 0,6 °C 83 % 996,1 hPa 0,0 l/m² 0 min 0 min 124 W/m² 19,3 km/h (3 Bft) 100,00 %
23.01.2026 11:00 4,7 °C 5,0 °C 0,6 °C 83 % 996,2 hPa 0,0 l/m² 0 min 0 min 130 W/m² 12,9 km/h (3 Bft) 95,74 %
23.01.2026 11:02 4,7 °C 5,0 °C 0,6 °C 83 % 996,2 hPa 0,0 l/m² 0 min 0 min 128 W/m² 19,3 km/h (3 Bft) 96,00 %
23.01.2026 11:04 4,7 °C 5,0 °C 0,6 °C 83 % 996,1 hPa 0,0 l/m² 0 min 0 min 133 W/m² 19,3 km/h (3 Bft) 95,65 %
23.01.2026 11:06 4,8 °C 5,0 °C 0,6 °C 82 % 996,2 hPa 0,0 l/m² 0 min 0 min 136 W/m² 19,3 km/h (3 Bft) 95,92 %
23.01.2026 11:08 4,8 °C 5,0 °C 1,1 °C 82 % 996,2 hPa 0,0 l/m² 0 min 0 min 135 W/m² 22,5 km/h (4 Bft) 97,83 %
23.01.2026 11:10 4,8 °C 5,6 °C 1,1 °C 82 % 996,1 hPa 0,0 l/m² 0 min 0 min 140 W/m² 19,3 km/h (3 Bft) 97,73 %
23.01.2026 11:12 4,9 °C 7,2 °C 1,1 °C 82 % 996,1 hPa 0,0 l/m² 2 min 0 min 198 W/m² 16,1 km/h (3 Bft) 94,00 %
23.01.2026 11:14 4,9 °C 7,2 °C 1,1 °C 82 % 996,1 hPa 0,0 l/m² 2 min 0 min 200 W/m² 25,7 km/h (4 Bft) 95,65 %
23.01.2026 11:16 5,1 °C 6,7 °C 1,1 °C 82 % 996,2 hPa 0,0 l/m² 0 min 0 min 156 W/m² 16,1 km/h (3 Bft) 95,83 %
23.01.2026 11:18 5,1 °C 6,1 °C 1,1 °C 82 % 996,1 hPa 0,0 l/m² 0 min 0 min 153 W/m² 16,1 km/h (3 Bft) 97,87 %
23.01.2026 11:20 5,1 °C 6,1 °C 1,1 °C 82 % 996,1 hPa 0,0 l/m² 0 min 0 min 147 W/m² 16,1 km/h (3 Bft) 93,02 %
23.01.2026 11:22 5,2 °C 6,1 °C 1,1 °C 82 % 996,1 hPa 0,0 l/m² 0 min 0 min 144 W/m² 19,3 km/h (3 Bft) 98,00 %
23.01.2026 11:24 5,2 °C 6,1 °C 1,1 °C 82 % 996,1 hPa 0,0 l/m² 0 min 0 min 150 W/m² 16,1 km/h (3 Bft) 97,83 %
23.01.2026 11:26 5,3 °C 6,1 °C 1,1 °C 82 % 996,1 hPa 0,0 l/m² 0 min 0 min 153 W/m² 19,3 km/h (3 Bft) 98,04 %
23.01.2026 11:28 5,3 °C 6,1 °C 1,1 °C 82 % 996,1 hPa 0,0 l/m² 0 min 0 min 160 W/m² 19,3 km/h (3 Bft) 97,78 %
23.01.2026 11:30 5,3 °C 6,1 °C 1,7 °C 81 % 996,1 hPa 0,0 l/m² 2 min 0 min 177 W/m² 19,3 km/h (3 Bft) 97,30 %
23.01.2026 11:32 5,4 °C 6,7 °C 1,7 °C 81 % 996,0 hPa 0,0 l/m² 2 min 0 min 202 W/m² 19,3 km/h (3 Bft) 98,28 %
23.01.2026 11:34 5,5 °C 6,1 °C 1,7 °C 81 % 996,0 hPa 0,0 l/m² 2 min 0 min 182 W/m² 22,5 km/h (4 Bft) 94,74 %
23.01.2026 11:36 5,5 °C 6,1 °C 1,7 °C 81 % 996,0 hPa 0,0 l/m² 0 min 0 min 160 W/m² 19,3 km/h (3 Bft) 98,28 %
23.01.2026 11:38 5,6 °C 6,1 °C 1,7 °C 80 % 996,1 hPa 0,0 l/m² 0 min 0 min 164 W/m² 19,3 km/h (3 Bft) 97,22 %
23.01.2026 11:40 5,6 °C 6,7 °C 1,7 °C 80 % 996,1 hPa 0,0 l/m² 2 min 0 min 173 W/m² 25,7 km/h (4 Bft) 98,31 %
23.01.2026 11:42 5,6 °C 6,7 °C 1,1 °C 80 % 996,1 hPa 0,0 l/m² 0 min 0 min 150 W/m² 22,5 km/h (4 Bft) 97,62 %
23.01.2026 11:44 5,6 °C 7,8 °C 1,1 °C 80 % 996,1 hPa 0,0 l/m² 2 min 0 min 223 W/m² 29,0 km/h (5 Bft) 97,50 %
23.01.2026 11:46 5,7 °C 7,8 °C 1,1 °C 80 % 996,0 hPa 0,0 l/m² 2 min 0 min 218 W/m² 22,5 km/h (4 Bft) 94,64 %
23.01.2026 11:48 5,7 °C 7,2 °C 1,1 °C 79 % 996,0 hPa 0,0 l/m² 0 min 0 min 141 W/m² 22,5 km/h (4 Bft) 97,30 %
23.01.2026 11:50 5,7 °C 7,2 °C 1,1 °C 79 % 996,0 hPa 0,0 l/m² 0 min 0 min 166 W/m² 22,5 km/h (4 Bft) 96,61 %
23.01.2026 11:52 5,7 °C 7,2 °C 1,1 °C 79 % 996,0 hPa 0,0 l/m² 2 min 0 min 202 W/m² 22,5 km/h (4 Bft) 97,37 %
23.01.2026 11:54 5,7 °C 7,8 °C 1,1 °C 79 % 996,0 hPa 0,0 l/m² 2 min 0 min 246 W/m² 29,0 km/h (5 Bft) 97,87 %
23.01.2026 11:56 5,8 °C 7,8 °C 1,1 °C 79 % 996,0 hPa 0,0 l/m² 2 min 0 min 237 W/m² 38,6 km/h (5 Bft) 97,96 %
23.01.2026 11:58 5,8 °C 7,2 °C 1,1 °C 79 % 996,0 hPa 0,0 l/m² 0 min 0 min 171 W/m² 16,1 km/h (3 Bft) 97,87 %
23.01.2026 12:00 5,8 °C 7,2 °C 1,1 °C 79 % 996,0 hPa 0,0 l/m² 0 min 0 min 146 W/m² 19,3 km/h (3 Bft) 94,74 %
23.01.2026 12:02 5,8 °C 7,8 °C 1,1 °C 79 % 995,9 hPa 0,0 l/m² 0 min 0 min 155 W/m² 19,3 km/h (3 Bft) 98,31 %
23.01.2026 12:04 5,8 °C 8,3 °C 1,7 °C 78 % 996,0 hPa 0,0 l/m² 0 min 0 min 154 W/m² 16,1 km/h (3 Bft) 97,44 %
23.01.2026 12:07 5,8 °C 7,2 °C 1,7 °C 78 % 995,9 hPa 0,0 l/m² 0 min 0 min 137 W/m² 16,1 km/h (3 Bft) 97,44 %
23.01.2026 12:10 5,8 °C 6,1 °C 1,1 °C 78 % 995,9 hPa 0,0 l/m² 0 min 0 min 138 W/m² 19,3 km/h (3 Bft) 96,50 %
23.01.2026 12:12 5,8 °C 6,1 °C 1,1 °C 78 % 996,0 hPa 0,0 l/m² 0 min 0 min 128 W/m² 12,9 km/h (3 Bft) 59,62 %
23.01.2026 12:16 5,8 °C 6,1 °C 1,1 °C 78 % 995,8 hPa 0,0 l/m² 0 min 0 min 128 W/m² 19,3 km/h (3 Bft) 100,00 %
23.01.2026 12:18 5,8 °C 6,1 °C 1,1 °C 79 % 995,8 hPa 0,0 l/m² 0 min 0 min 141 W/m² 22,5 km/h (4 Bft) 100,00 %
23.01.2026 12:20 5,8 °C 6,1 °C 1,1 °C 79 % 995,8 hPa 0,0 l/m² 0 min 0 min 134 W/m² 16,1 km/h (3 Bft) 96,36 %
23.01.2026 12:22 5,8 °C 6,1 °C 1,1 °C 79 % 995,8 hPa 0,0 l/m² 0 min 0 min 130 W/m² 12,9 km/h (3 Bft) 100,00 %
23.01.2026 12:24 5,8 °C 6,1 °C 1,1 °C 79 % 995,8 hPa 0,0 l/m² 0 min 0 min 129 W/m² 16,1 km/h (3 Bft) 95,74 %
23.01.2026 12:26 5,8 °C 6,1 °C 1,1 °C 79 % 995,7 hPa 0,0 l/m² 0 min 0 min 121 W/m² 12,9 km/h (3 Bft) 96,36 %
23.01.2026 12:28 5,8 °C 6,7 °C 1,1 °C 79 % 995,7 hPa 0,0 l/m² 0 min 0 min 135 W/m² 19,3 km/h (3 Bft) 97,44 %
23.01.2026 12:30 5,8 °C 6,7 °C 1,7 °C 79 % 995,8 hPa 0,0 l/m² 0 min 0 min 144 W/m² 16,1 km/h (3 Bft) 97,83 %
23.01.2026 12:32 5,8 °C 6,7 °C 1,7 °C 79 % 995,8 hPa 0,0 l/m² 0 min 0 min 163 W/m² 16,1 km/h (3 Bft) 98,18 %
23.01.2026 12:34 5,8 °C 6,7 °C 1,7 °C 79 % 995,8 hPa 0,0 l/m² 0 min 0 min 158 W/m² 16,1 km/h (3 Bft) 97,44 %
23.01.2026 12:36 5,8 °C 6,7 °C 1,7 °C 79 % 995,7 hPa 0,0 l/m² 0 min 0 min 163 W/m² 22,5 km/h (4 Bft) 97,78 %
23.01.2026 12:38 5,8 °C 6,7 °C 1,7 °C 79 % 995,7 hPa 0,0 l/m² 0 min 0 min 151 W/m² 12,9 km/h (3 Bft) 97,96 %
23.01.2026 12:40 5,8 °C 6,7 °C 1,7 °C 79 % 995,8 hPa 0,0 l/m² 0 min 0 min 142 W/m² 19,3 km/h (3 Bft) 97,87 %
23.01.2026 12:42 5,9 °C 6,1 °C 1,7 °C 79 % 995,7 hPa 0,0 l/m² 0 min 0 min 141 W/m² 16,1 km/h (3 Bft) 98,15 %
23.01.2026 12:44 5,9 °C 6,7 °C 1,7 °C 79 % 995,8 hPa 0,0 l/m² 0 min 0 min 141 W/m² 19,3 km/h (3 Bft) 97,44 %
23.01.2026 12:46 5,9 °C 6,7 °C 1,7 °C 79 % 995,7 hPa 0,0 l/m² 0 min 0 min 147 W/m² 19,3 km/h (3 Bft) 97,83 %
23.01.2026 12:48 5,9 °C 6,7 °C 1,7 °C 79 % 995,7 hPa 0,0 l/m² 0 min 0 min 156 W/m² 12,9 km/h (3 Bft) 98,18 %
23.01.2026 12:50 6,0 °C 7,2 °C 2,2 °C 79 % 995,7 hPa 0,0 l/m² 0 min 0 min 162 W/m² 16,1 km/h (3 Bft) 95,00 %
23.01.2026 12:52 6,1 °C 7,2 °C 2,2 °C 79 % 995,6 hPa 0,0 l/m² 0 min 0 min 174 W/m² 12,9 km/h (3 Bft) 95,74 %
23.01.2026 12:54 6,1 °C 7,8 °C 2,2 °C 79 % 995,6 hPa 0,0 l/m² 2 min 0 min 195 W/m² 9,7 km/h (2 Bft) 95,45 %
23.01.2026 12:56 6,2 °C 7,8 °C 2,2 °C 79 % 995,6 hPa 0,0 l/m² 2 min 0 min 201 W/m² 16,1 km/h (3 Bft) 98,21 %
23.01.2026 12:58 6,3 °C 7,8 °C 2,2 °C 79 % 995,6 hPa 0,0 l/m² 2 min 0 min 213 W/m² 19,3 km/h (3 Bft) 97,50 %
23.01.2026 13:00 6,4 °C 8,3 °C 2,8 °C 79 % 995,6 hPa 0,0 l/m² 2 min 0 min 224 W/m² 16,1 km/h (3 Bft) 100,00 %
23.01.2026 13:02 6,5 °C 8,9 °C 2,8 °C 79 % 995,6 hPa 0,0 l/m² 2 min 0 min 215 W/m² 6,4 km/h (2 Bft) 100,00 %
23.01.2026 13:04 6,6 °C 8,9 °C 2,8 °C 79 % 995,5 hPa 0,0 l/m² 2 min 0 min 220 W/m² 12,9 km/h (3 Bft) 100,00 %
23.01.2026 13:06 6,7 °C 8,9 °C 2,8 °C 79 % 995,5 hPa 0,0 l/m² 2 min 0 min 195 W/m² 16,1 km/h (3 Bft) 100,00 %
23.01.2026 13:08 6,8 °C 9,4 °C 2,8 °C 79 % 995,5 hPa 0,0 l/m² 2 min 0 min 218 W/m² 22,5 km/h (4 Bft) 97,87 %
23.01.2026 13:10 6,8 °C 9,4 °C 2,8 °C 78 % 995,5 hPa 0,0 l/m² 2 min 0 min 222 W/m² 12,9 km/h (3 Bft) 96,49 %
23.01.2026 13:12 6,9 °C 8,9 °C 2,8 °C 78 % 995,6 hPa 0,0 l/m² 0 min 0 min 183 W/m² 16,1 km/h (3 Bft) 97,30 %
23.01.2026 13:14 7,1 °C 8,9 °C 2,8 °C 78 % 995,5 hPa 0,0 l/m² 2 min 0 min 187 W/m² 12,9 km/h (3 Bft) 97,87 %
23.01.2026 13:16 7,1 °C 8,9 °C 2,8 °C 77 % 995,5 hPa 0,0 l/m² 0 min 0 min 160 W/m² 9,7 km/h (2 Bft) 95,74 %
23.01.2026 13:18 7,2 °C 8,9 °C 2,8 °C 77 % 995,5 hPa 0,0 l/m² 0 min 0 min 170 W/m² 12,9 km/h (3 Bft) 94,74 %
23.01.2026 13:20 7,3 °C 9,4 °C 2,8 °C 77 % 995,5 hPa 0,0 l/m² 2 min 0 min 209 W/m² 22,5 km/h (4 Bft) 96,55 %
23.01.2026 13:22 7,3 °C 8,9 °C 2,8 °C 76 % 995,4 hPa 0,0 l/m² 2 min 0 min 188 W/m² 12,9 km/h (3 Bft) 97,87 %
23.01.2026 13:24 7,4 °C 9,4 °C 2,8 °C 76 % 995,4 hPa 0,0 l/m² 2 min 0 min 221 W/m² 12,9 km/h (3 Bft) 97,37 %
23.01.2026 13:26 7,4 °C 10,6 °C 2,8 °C 75 % 995,3 hPa 0,0 l/m² 2 min 0 min 287 W/m² 19,3 km/h (3 Bft) 96,61 %
23.01.2026 13:28 7,6 °C 12,8 °C 3,3 °C 75 % 995,3 hPa 0,0 l/m² 2 min 0 min 370 W/m² 22,5 km/h (4 Bft) 95,65 %
23.01.2026 13:30 7,7 °C 13,9 °C 3,3 °C 75 % 995,3 hPa 0,0 l/m² 2 min 0 min 394 W/m² 19,3 km/h (3 Bft) 97,37 %
23.01.2026 13:32 7,8 °C 13,3 °C 3,3 °C 75 % 995,2 hPa 0,0 l/m² 2 min 0 min 341 W/m² 25,7 km/h (4 Bft) 97,87 %
23.01.2026 13:34 7,9 °C 12,8 °C 3,3 °C 74 % 995,1 hPa 0,0 l/m² 2 min 0 min 296 W/m² 22,5 km/h (4 Bft) 97,87 %
23.01.2026 13:36 8,0 °C 13,3 °C 3,3 °C 73 % 995,2 hPa 0,0 l/m² 2 min 0 min 312 W/m² 16,1 km/h (3 Bft) 94,74 %
23.01.2026 13:38 8,1 °C 13,3 °C 3,3 °C 73 % 995,2 hPa 0,0 l/m² 2 min 0 min 359 W/m² 22,5 km/h (4 Bft) 97,67 %
23.01.2026 13:40 8,2 °C 13,9 °C 3,3 °C 73 % 995,2 hPa 0,0 l/m² 2 min 0 min 356 W/m² 22,5 km/h (4 Bft) 95,12 %
23.01.2026 13:42 8,2 °C 13,9 °C 3,3 °C 72 % 995,1 hPa 0,0 l/m² 2 min 0 min 353 W/m² 16,1 km/h (3 Bft) 97,83 %
23.01.2026 13:44 8,3 °C 14,4 °C 3,3 °C 72 % 995,1 hPa 0,0 l/m² 2 min 0 min 353 W/m² 16,1 km/h (3 Bft) 96,49 %
23.01.2026 13:46 8,4 °C 14,4 °C 3,3 °C 73 % 995,1 hPa 0,0 l/m² 2 min 0 min 355 W/m² 12,9 km/h (3 Bft) 97,73 %
23.01.2026 13:48 8,6 °C 14,4 °C 3,3 °C 73 % 995,0 hPa 0,0 l/m² 2 min 0 min 357 W/m² 16,1 km/h (3 Bft) 95,00 %
23.01.2026 13:50 8,7 °C 15,0 °C 3,3 °C 72 % 995,0 hPa 0,0 l/m² 2 min 0 min 358 W/m² 16,1 km/h (3 Bft) 97,87 %
23.01.2026 13:52 8,8 °C 15,0 °C 3,3 °C 72 % 995,0 hPa 0,0 l/m² 2 min 0 min 356 W/m² 16,1 km/h (3 Bft) 100,00 %
23.01.2026 13:54 8,8 °C 14,4 °C 3,3 °C 71 % 995,0 hPa 0,0 l/m² 2 min 0 min 356 W/m² 22,5 km/h (4 Bft) 100,00 %
23.01.2026 13:56 8,9 °C 14,4 °C 3,9 °C 71 % 995,1 hPa 0,0 l/m² 2 min 0 min 337 W/m² 12,9 km/h (3 Bft) 97,50 %
23.01.2026 13:58 9,1 °C 13,9 °C 3,9 °C 71 % 995,0 hPa 0,0 l/m² 2 min 0 min 323 W/m² 19,3 km/h (3 Bft) 97,87 %
23.01.2026 14:00 9,1 °C 13,3 °C 3,9 °C 71 % 995,0 hPa 0,0 l/m² 2 min 0 min 265 W/m² 16,1 km/h (3 Bft) 98,00 %
23.01.2026 14:02 9,1 °C 12,2 °C 3,9 °C 71 % 995,1 hPa 0,0 l/m² 2 min 0 min 241 W/m² 38,6 km/h (5 Bft) 100,00 %
23.01.2026 14:04 9,1 °C 10,0 °C 3,3 °C 70 % 995,0 hPa 0,0 l/m² 0 min 0 min 149 W/m² 22,5 km/h (4 Bft) 100,00 %
23.01.2026 14:06 9,1 °C 9,4 °C 3,3 °C 70 % 995,0 hPa 0,0 l/m² 0 min 0 min 94 W/m² 12,9 km/h (3 Bft) 98,21 %
23.01.2026 14:08 8,9 °C 8,9 °C 3,3 °C 70 % 995,0 hPa 0,0 l/m² 0 min 0 min 86 W/m² 12,9 km/h (3 Bft) 97,14 %
23.01.2026 14:10 8,8 °C 8,3 °C 3,3 °C 70 % 995,1 hPa 0,0 l/m² 0 min 0 min 82 W/m² 19,3 km/h (3 Bft) 100,00 %
23.01.2026 14:12 8,7 °C 8,3 °C 3,3 °C 70 % 995,0 hPa 0,0 l/m² 0 min 0 min 98 W/m² 25,7 km/h (4 Bft) 97,87 %
23.01.2026 14:14 8,6 °C 8,3 °C 3,3 °C 71 % 995,0 hPa 0,0 l/m² 0 min 0 min 126 W/m² 12,9 km/h (3 Bft) 100,00 %
23.01.2026 14:16 8,6 °C 8,3 °C 2,8 °C 71 % 995,0 hPa 0,0 l/m² 0 min 0 min 124 W/m² 12,9 km/h (3 Bft) 97,67 %
23.01.2026 14:18 8,4 °C 8,9 °C 2,8 °C 71 % 995,0 hPa 0,0 l/m² 0 min 0 min 129 W/m² 22,5 km/h (4 Bft) 96,15 %
23.01.2026 14:20 8,4 °C 10,0 °C 2,8 °C 72 % 995,0 hPa 0,0 l/m² 2 min 0 min 273 W/m² 22,5 km/h (4 Bft) 100,00 %
23.01.2026 14:22 8,4 °C 11,1 °C 2,8 °C 72 % 995,0 hPa 0,0 l/m² 2 min 0 min 278 W/m² 16,1 km/h (3 Bft) 100,00 %
23.01.2026 14:24 8,4 °C 11,7 °C 3,3 °C 72 % 995,0 hPa 0,0 l/m² 2 min 0 min 260 W/m² 16,1 km/h (3 Bft) 100,00 %
23.01.2026 14:26 8,5 °C 11,1 °C 3,3 °C 72 % 995,0 hPa 0,0 l/m² 2 min 0 min 229 W/m² 19,3 km/h (3 Bft) 100,00 %
23.01.2026 14:28 8,6 °C 11,1 °C 3,3 °C 72 % 995,0 hPa 0,0 l/m² 2 min 0 min 232 W/m² 16,1 km/h (3 Bft) 97,92 %
23.01.2026 14:30 8,6 °C 11,1 °C 3,3 °C 71 % 995,0 hPa 0,0 l/m² 2 min 0 min 213 W/m² 19,3 km/h (3 Bft) 95,83 %
23.01.2026 14:32 8,6 °C 11,1 °C 3,3 °C 72 % 995,0 hPa 0,0 l/m² 2 min 0 min 240 W/m² 19,3 km/h (3 Bft) 95,92 %
23.01.2026 14:34 8,7 °C 11,1 °C 3,3 °C 72 % 995,1 hPa 0,0 l/m² 2 min 0 min 278 W/m² 19,3 km/h (3 Bft) 95,74 %
23.01.2026 14:36 8,7 °C 11,1 °C 3,3 °C 71 % 995,0 hPa 0,0 l/m² 2 min 0 min 271 W/m² 22,5 km/h (4 Bft) 95,74 %
23.01.2026 14:38 8,7 °C 11,1 °C 3,3 °C 71 % 995,1 hPa 0,0 l/m² 2 min 0 min 212 W/m² 19,3 km/h (3 Bft) 97,73 %
23.01.2026 14:40 8,8 °C 10,6 °C 3,3 °C 71 % 995,0 hPa 0,0 l/m² 0 min 0 min 146 W/m² 16,1 km/h (3 Bft) 93,88 %
23.01.2026 14:42 8,8 °C 9,4 °C 3,3 °C 71 % 995,1 hPa 0,0 l/m² 0 min 0 min 98 W/m² 16,1 km/h (3 Bft) 93,48 %
23.01.2026 14:44 8,8 °C 8,9 °C 3,3 °C 71 % 995,0 hPa 0,0 l/m² 0 min 0 min 87 W/m² 16,1 km/h (3 Bft) 97,78 %
23.01.2026 14:46 8,7 °C 8,3 °C 3,3 °C 71 % 995,0 hPa 0,0 l/m² 0 min 0 min 77 W/m² 16,1 km/h (3 Bft) 97,73 %
23.01.2026 14:48 8,7 °C 8,3 °C 3,3 °C 71 % 995,0 hPa 0,0 l/m² 0 min 0 min 70 W/m² 16,1 km/h (3 Bft) 95,83 %
23.01.2026 14:50 8,6 °C 7,8 °C 3,3 °C 71 % 995,1 hPa 0,0 l/m² 0 min 0 min 63 W/m² 12,9 km/h (3 Bft) 98,04 %
23.01.2026 14:52 8,6 °C 7,8 °C 3,3 °C 71 % 995,1 hPa 0,0 l/m² 0 min 0 min 57 W/m² 12,9 km/h (3 Bft) 95,24 %
23.01.2026 14:54 8,6 °C 7,8 °C 3,3 °C 71 % 995,2 hPa 0,0 l/m² 0 min 0 min 54 W/m² 16,1 km/h (3 Bft) 98,08 %
23.01.2026 14:56 8,5 °C 7,8 °C 3,3 °C 71 % 995,2 hPa 0,0 l/m² 0 min 0 min 51 W/m² 12,9 km/h (3 Bft) 95,65 %
23.01.2026 14:58 8,4 °C 7,8 °C 3,3 °C 71 % 995,2 hPa 0,0 l/m² 0 min 0 min 50 W/m² 12,9 km/h (3 Bft) 97,73 %
23.01.2026 15:00 8,4 °C 7,8 °C 2,8 °C 72 % 995,2 hPa 0,0 l/m² 0 min 0 min 49 W/m² 19,3 km/h (3 Bft) 96,08 %
23.01.2026 15:02 8,3 °C 7,8 °C 2,8 °C 72 % 995,2 hPa 0,0 l/m² 0 min 0 min 49 W/m² 12,9 km/h (3 Bft) 95,65 %
23.01.2026 15:04 8,3 °C 7,8 °C 2,8 °C 72 % 995,2 hPa 0,0 l/m² 0 min 0 min 49 W/m² 16,1 km/h (3 Bft) 93,88 %
23.01.2026 15:08 8,2 °C 7,2 °C 2,8 °C 72 % 995,3 hPa 0,0 l/m² 0 min 0 min 49 W/m² 12,9 km/h (3 Bft) 94,68 %
23.01.2026 15:10 8,2 °C 7,2 °C 2,8 °C 72 % 995,2 hPa 0,0 l/m² 0 min 0 min 49 W/m² 12,9 km/h (3 Bft) 95,45 %
23.01.2026 15:12 8,2 °C 7,2 °C 2,8 °C 73 % 995,2 hPa 0,0 l/m² 0 min 0 min 50 W/m² 12,9 km/h (3 Bft) 96,00 %
23.01.2026 15:14 8,1 °C 7,2 °C 2,8 °C 73 % 995,2 hPa 0,0 l/m² 0 min 0 min 53 W/m² 19,3 km/h (3 Bft) 95,65 %
23.01.2026 15:16 8,1 °C 7,2 °C 2,8 °C 73 % 995,3 hPa 0,0 l/m² 0 min 0 min 53 W/m² 16,1 km/h (3 Bft) 97,87 %
23.01.2026 15:18 8,1 °C 7,2 °C 2,8 °C 73 % 995,2 hPa 0,0 l/m² 0 min 0 min 54 W/m² 6,4 km/h (2 Bft) 91,49 %
23.01.2026 15:20 8,0 °C 7,2 °C 2,8 °C 73 % 995,2 hPa 0,0 l/m² 0 min 0 min 58 W/m² 19,3 km/h (3 Bft) 97,78 %
23.01.2026 15:22 7,9 °C 7,2 °C 2,8 °C 73 % 995,2 hPa 0,0 l/m² 0 min 0 min 68 W/m² 6,4 km/h (2 Bft) 100,00 %
23.01.2026 15:24 7,9 °C 7,2 °C 2,8 °C 73 % 995,2 hPa 0,0 l/m² 0 min 0 min 76 W/m² 9,7 km/h (2 Bft) 95,74 %
23.01.2026 15:26 7,9 °C 7,2 °C 2,8 °C 73 % 995,2 hPa 0,0 l/m² 0 min 0 min 89 W/m² 12,9 km/h (3 Bft) 95,74 %
23.01.2026 15:28 7,9 °C 7,2 °C 2,8 °C 73 % 995,3 hPa 0,0 l/m² 0 min 0 min 68 W/m² 6,4 km/h (2 Bft) 97,83 %
23.01.2026 15:30 7,9 °C 7,2 °C 2,8 °C 73 % 995,2 hPa 0,0 l/m² 0 min 0 min 59 W/m² 6,4 km/h (2 Bft) 97,87 %
23.01.2026 15:32 7,9 °C 7,2 °C 2,8 °C 73 % 995,2 hPa 0,0 l/m² 0 min 0 min 59 W/m² 6,4 km/h (2 Bft) 95,74 %
23.01.2026 15:34 7,8 °C 7,2 °C 2,8 °C 73 % 995,3 hPa 0,0 l/m² 0 min 0 min 60 W/m² 12,9 km/h (3 Bft) 95,74 %
23.01.2026 15:36 7,8 °C 7,2 °C 2,8 °C 73 % 995,2 hPa 0,0 l/m² 0 min 0 min 63 W/m² 9,7 km/h (2 Bft) 97,87 %
23.01.2026 15:38 7,8 °C 7,2 °C 2,8 °C 73 % 995,2 hPa 0,0 l/m² 0 min 0 min 65 W/m² 12,9 km/h (3 Bft) 96,55 %
23.01.2026 15:40 7,8 °C 7,2 °C 2,8 °C 72 % 995,3 hPa 0,0 l/m² 0 min 0 min 67 W/m² 19,3 km/h (3 Bft) 100,00 %
23.01.2026 15:42 7,8 °C 7,8 °C 2,8 °C 72 % 995,2 hPa 0,0 l/m² 0 min 0 min 70 W/m² 12,9 km/h (3 Bft) 100,00 %
23.01.2026 15:44 7,8 °C 7,2 °C 2,8 °C 72 % 995,2 hPa 0,0 l/m² 0 min 0 min 72 W/m² 12,9 km/h (3 Bft) 97,83 %
23.01.2026 15:46 7,8 °C 7,8 °C 2,8 °C 72 % 995,2 hPa 0,0 l/m² 0 min 0 min 74 W/m² 19,3 km/h (3 Bft) 100,00 %
23.01.2026 15:48 7,8 °C 7,8 °C 2,8 °C 72 % 995,2 hPa 0,0 l/m² 0 min 0 min 76 W/m² 16,1 km/h (3 Bft) 97,44 %
23.01.2026 15:50 7,8 °C 7,8 °C 3,3 °C 72 % 995,3 hPa 0,0 l/m² 0 min 0 min 76 W/m² 12,9 km/h (3 Bft) 97,83 %
23.01.2026 15:52 7,8 °C 7,8 °C 3,3 °C 72 % 995,2 hPa 0,0 l/m² 0 min 0 min 74 W/m² 22,5 km/h (4 Bft) 97,83 %
23.01.2026 15:54 7,8 °C 7,8 °C 3,3 °C 71 % 995,3 hPa 0,0 l/m² 0 min 0 min 71 W/m² 6,4 km/h (2 Bft) 96,43 %
23.01.2026 15:56 7,8 °C 7,8 °C 3,3 °C 71 % 995,3 hPa 0,0 l/m² 0 min 0 min 69 W/m² 16,1 km/h (3 Bft) 97,44 %
23.01.2026 15:58 7,8 °C 7,8 °C 3,3 °C 71 % 995,3 hPa 0,0 l/m² 0 min 0 min 65 W/m² 12,9 km/h (3 Bft) 98,25 %
23.01.2026 16:00 7,8 °C 7,2 °C 2,8 °C 71 % 995,2 hPa 0,0 l/m² 0 min 0 min 61 W/m² 12,9 km/h (3 Bft) 97,78 %
23.01.2026 16:02 7,8 °C 7,2 °C 3,3 °C 71 % 995,2 hPa 0,0 l/m² 0 min 0 min 59 W/m² 19,3 km/h (3 Bft) 97,78 %
23.01.2026 16:04 7,8 °C 7,2 °C 3,3 °C 71 % 995,2 hPa 0,0 l/m² 0 min 0 min 55 W/m² 16,1 km/h (3 Bft) 97,56 %
23.01.2026 16:06 7,8 °C 7,2 °C 2,8 °C 71 % 995,1 hPa 0,0 l/m² 0 min 0 min 53 W/m² 16,1 km/h (3 Bft) 97,87 %
23.01.2026 16:08 7,8 °C 7,2 °C 2,8 °C 71 % 995,1 hPa 0,0 l/m² 0 min 0 min 51 W/m² 16,1 km/h (3 Bft) 97,87 %
23.01.2026 16:10 7,8 °C 7,2 °C 2,8 °C 71 % 995,1 hPa 0,0 l/m² 0 min 0 min 50 W/m² 22,5 km/h (4 Bft) 97,87 %
23.01.2026 16:12 7,8 °C 7,2 °C 2,8 °C 71 % 995,1 hPa 0,0 l/m² 0 min 0 min 49 W/m² 12,9 km/h (3 Bft) 97,83 %
23.01.2026 16:14 7,8 °C 7,2 °C 2,8 °C 71 % 995,1 hPa 0,0 l/m² 0 min 0 min 49 W/m² 16,1 km/h (3 Bft) 94,00 %
23.01.2026 16:16 7,8 °C 7,2 °C 2,8 °C 71 % 995,0 hPa 0,0 l/m² 0 min 0 min 48 W/m² 19,3 km/h (3 Bft) 97,87 %
23.01.2026 16:18 7,8 °C 7,2 °C 2,8 °C 71 % 995,0 hPa 0,0 l/m² 0 min 0 min 47 W/m² 19,3 km/h (3 Bft) 97,87 %
23.01.2026 16:20 7,8 °C 7,2 °C 2,8 °C 71 % 995,0 hPa 0,0 l/m² 0 min 0 min 48 W/m² 19,3 km/h (3 Bft) 97,73 %
23.01.2026 16:22 7,8 °C 7,2 °C 2,8 °C 71 % 995,0 hPa 0,0 l/m² 0 min 0 min 48 W/m² 12,9 km/h (3 Bft) 98,00 %
23.01.2026 16:24 7,7 °C 7,2 °C 2,8 °C 71 % 995,0 hPa 0,0 l/m² 0 min 0 min 47 W/m² 25,7 km/h (4 Bft) 97,83 %
23.01.2026 16:26 7,7 °C 7,2 °C 2,8 °C 71 % 995,1 hPa 0,0 l/m² 2 min 0 min 46 W/m² 19,3 km/h (3 Bft) 97,73 %
23.01.2026 16:28 7,7 °C 7,2 °C 2,8 °C 71 % 995,1 hPa 0,0 l/m² 0 min 0 min 42 W/m² 16,1 km/h (3 Bft) 96,00 %
23.01.2026 16:30 7,7 °C 7,2 °C 2,8 °C 71 % 995,1 hPa 0,0 l/m² 0 min 0 min 38 W/m² 19,3 km/h (3 Bft) 93,62 %
23.01.2026 16:32 7,7 °C 7,2 °C 2,8 °C 71 % 995,1 hPa 0,0 l/m² 0 min 0 min 35 W/m² 22,5 km/h (4 Bft) 95,35 %
23.01.2026 16:34 7,7 °C 7,2 °C 2,8 °C 71 % 995,1 hPa 0,0 l/m² 0 min 0 min 33 W/m² 16,1 km/h (3 Bft) 97,96 %
23.01.2026 16:36 7,7 °C 7,2 °C 2,8 °C 71 % 995,1 hPa 0,0 l/m² 0 min 0 min 30 W/m² 12,9 km/h (3 Bft) 95,74 %
23.01.2026 16:38 7,7 °C 7,2 °C 2,8 °C 71 % 995,1 hPa 0,0 l/m² 0 min 0 min 26 W/m² 16,1 km/h (3 Bft) 100,00 %
23.01.2026 16:40 7,7 °C 6,7 °C 2,8 °C 71 % 995,1 hPa 0,0 l/m² 0 min 0 min 24 W/m² 16,1 km/h (3 Bft) 97,87 %
23.01.2026 16:42 7,7 °C 6,7 °C 2,8 °C 71 % 995,2 hPa 0,0 l/m² 0 min 0 min 21 W/m² 12,9 km/h (3 Bft) 100,00 %
23.01.2026 16:44 7,7 °C 6,7 °C 2,8 °C 71 % 995,2 hPa 0,0 l/m² 0 min 0 min 18 W/m² 16,1 km/h (3 Bft) 100,00 %
23.01.2026 16:46 7,7 °C 6,7 °C 2,8 °C 71 % 995,1 hPa 0,0 l/m² 0 min 0 min 16 W/m² 19,3 km/h (3 Bft) 98,08 %
23.01.2026 16:48 7,6 °C 6,7 °C 2,8 °C 71 % 995,1 hPa 0,0 l/m² 0 min 0 min 13 W/m² 22,5 km/h (4 Bft) 100,00 %
23.01.2026 16:50 7,6 °C 6,7 °C 2,8 °C 71 % 995,1 hPa 0,0 l/m² 0 min 0 min 12 W/m² 19,3 km/h (3 Bft) 97,83 %
23.01.2026 16:52 7,6 °C 6,7 °C 2,8 °C 71 % 995,2 hPa 0,0 l/m² 0 min 0 min 10 W/m² 19,3 km/h (3 Bft) 100,00 %
23.01.2026 16:54 7,6 °C 6,7 °C 2,8 °C 71 % 995,2 hPa 0,0 l/m² 0 min 0 min 9 W/m² 16,1 km/h (3 Bft) 95,56 %
23.01.2026 16:56 7,5 °C 6,7 °C 2,8 °C 71 % 995,2 hPa 0,0 l/m² 0 min 0 min 8 W/m² 19,3 km/h (3 Bft) 98,08 %
23.01.2026 16:58 7,5 °C 6,7 °C 2,2 °C 71 % 995,2 hPa 0,0 l/m² 0 min 0 min 7 W/m² 16,1 km/h (3 Bft) 97,87 %
23.01.2026 17:00 7,4 °C 6,7 °C 2,2 °C 71 % 995,2 hPa 0,0 l/m² 0 min 0 min 7 W/m² 19,3 km/h (3 Bft) 97,83 %
23.01.2026 17:02 7,4 °C 6,7 °C 2,2 °C 71 % 995,2 hPa 0,0 l/m² 0 min 0 min 5 W/m² 22,5 km/h (4 Bft) 100,00 %
23.01.2026 17:04 7,4 °C 6,1 °C 2,2 °C 71 % 995,2 hPa 0,0 l/m² 0 min 0 min 5 W/m² 12,9 km/h (3 Bft) 98,33 %
23.01.2026 17:07 7,4 °C 6,1 °C 2,2 °C 71 % 995,2 hPa 0,0 l/m² 0 min 0 min 1 W/m² 12,9 km/h (3 Bft) 68,12 %
23.01.2026 17:12 7,3 °C 6,1 °C 2,2 °C 72 % 995,2 hPa 0,0 l/m² 0 min 0 min 0 W/m² 12,9 km/h (3 Bft) 98,57 %
23.01.2026 17:14 7,2 °C 6,1 °C 2,2 °C 72 % 995,3 hPa 0,0 l/m² 0 min 0 min 0 W/m² 6,4 km/h (2 Bft) 95,35 %
23.01.2026 17:16 7,2 °C 6,1 °C 2,2 °C 72 % 995,3 hPa 0,0 l/m² 0 min 0 min 0 W/m² 12,9 km/h (3 Bft) 97,56 %
23.01.2026 17:18 7,1 °C 6,1 °C 2,2 °C 72 % 995,3 hPa 0,0 l/m² 0 min 0 min 0 W/m² 19,3 km/h (3 Bft) 94,74 %
23.01.2026 17:20 7,1 °C 5,6 °C 1,7 °C 72 % 995,3 hPa 0,0 l/m² 0 min 0 min 0 W/m² 19,3 km/h (3 Bft) 94,59 %
23.01.2026 17:22 7,0 °C 6,1 °C 1,7 °C 72 % 995,4 hPa 0,0 l/m² 0 min 0 min 0 W/m² 22,5 km/h (4 Bft) 96,30 %
23.01.2026 17:24 6,9 °C 6,1 °C 1,7 °C 72 % 995,4 hPa 0,0 l/m² 0 min 0 min 0 W/m² 16,1 km/h (3 Bft) 96,00 %
23.01.2026 17:26 6,9 °C 6,1 °C 1,7 °C 72 % 995,3 hPa 0,0 l/m² 0 min 0 min 0 W/m² 19,3 km/h (3 Bft) 94,44 %
23.01.2026 17:28 6,9 °C 6,1 °C 1,7 °C 72 % 995,3 hPa 0,0 l/m² 0 min 0 min 0 W/m² 16,1 km/h (3 Bft) 96,23 %
23.01.2026 17:30 6,8 °C 6,1 °C 1,7 °C 72 % 995,3 hPa 0,0 l/m² 0 min 0 min 0 W/m² 16,1 km/h (3 Bft) 95,83 %
23.01.2026 17:32 6,8 °C 5,6 °C 1,7 °C 72 % 995,3 hPa 0,0 l/m² 0 min 0 min 0 W/m² 12,9 km/h (3 Bft) 93,75 %
23.01.2026 17:34 6,8 °C 5,6 °C 1,7 °C 72 % 995,3 hPa 0,0 l/m² 0 min 0 min 0 W/m² 19,3 km/h (3 Bft) 95,92 %
23.01.2026 17:36 6,7 °C 6,1 °C 1,7 °C 72 % 995,4 hPa 0,0 l/m² 0 min 0 min 0 W/m² 19,3 km/h (3 Bft) 94,44 %
23.01.2026 17:38 6,7 °C 5,6 °C 1,7 °C 72 % 995,4 hPa 0,0 l/m² 0 min 0 min 0 W/m² 16,1 km/h (3 Bft) 95,74 %
23.01.2026 17:40 6,7 °C 5,6 °C 1,7 °C 72 % 995,4 hPa 0,0 l/m² 0 min 0 min 0 W/m² 12,9 km/h (3 Bft) 95,74 %
23.01.2026 17:42 6,7 °C 5,6 °C 1,7 °C 72 % 995,4 hPa 0,0 l/m² 0 min 0 min 0 W/m² 12,9 km/h (3 Bft) 97,87 %
23.01.2026 17:44 6,6 °C 5,6 °C 1,7 °C 72 % 995,3 hPa 0,0 l/m² 0 min 0 min 0 W/m² 35,4 km/h (5 Bft) 97,87 %
23.01.2026 17:46 6,6 °C 5,6 °C 1,7 °C 72 % 995,4 hPa 0,0 l/m² 0 min 0 min 0 W/m² 16,1 km/h (3 Bft) 98,11 %
23.01.2026 17:48 6,6 °C 5,6 °C 1,7 °C 72 % 995,4 hPa 0,0 l/m² 0 min 0 min 0 W/m² 16,1 km/h (3 Bft) 94,12 %
23.01.2026 17:50 6,6 °C 5,6 °C 1,7 °C 72 % 995,4 hPa 0,0 l/m² 0 min 0 min 0 W/m² 22,5 km/h (4 Bft) 100,00 %
23.01.2026 17:52 6,6 °C 5,6 °C 1,7 °C 72 % 995,4 hPa 0,0 l/m² 0 min 0 min 0 W/m² 22,5 km/h (4 Bft) 97,87 %
23.01.2026 17:54 6,6 °C 5,6 °C 1,7 °C 72 % 995,5 hPa 0,0 l/m² 0 min 0 min 0 W/m² 19,3 km/h (3 Bft) 100,00 %
23.01.2026 17:56 6,6 °C 5,6 °C 1,7 °C 72 % 995,4 hPa 0,0 l/m² 0 min 0 min 0 W/m² 19,3 km/h (3 Bft) 100,00 %
23.01.2026 17:58 6,5 °C 5,6 °C 1,7 °C 72 % 995,5 hPa 0,0 l/m² 0 min 0 min 0 W/m² 6,4 km/h (2 Bft) 100,00 %
23.01.2026 18:00 6,5 °C 5,6 °C 1,7 °C 72 % 995,5 hPa 0,0 l/m² 0 min 0 min 0 W/m² 16,1 km/h (3 Bft) 100,00 %
23.01.2026 18:02 6,5 °C 5,6 °C 1,7 °C 72 % 995,6 hPa 0,0 l/m² 0 min 0 min 0 W/m² 16,1 km/h (3 Bft) 97,87 %
23.01.2026 18:04 6,5 °C 5,6 °C 1,7 °C 72 % 995,6 hPa 0,0 l/m² 0 min 0 min 0 W/m² 19,3 km/h (3 Bft) 100,00 %
23.01.2026 18:08 6,5 °C 5,6 °C 1,7 °C 72 % 995,7 hPa 0,0 l/m² 0 min 0 min 0 W/m² 19,3 km/h (3 Bft) 100,00 %
23.01.2026 18:10 6,5 °C 5,6 °C 1,7 °C 72 % 995,6 hPa 0,0 l/m² 0 min 0 min 0 W/m² 19,3 km/h (3 Bft) 98,58 %
23.01.2026 18:12 6,5 °C 5,6 °C 1,7 °C 72 % 995,7 hPa 0,0 l/m² 0 min 0 min 0 W/m² 19,3 km/h (3 Bft) 100,00 %
23.01.2026 18:14 6,4 °C 5,6 °C 1,7 °C 72 % 995,7 hPa 0,0 l/m² 0 min 0 min 0 W/m² 19,3 km/h (3 Bft) 100,00 %
23.01.2026 18:16 6,4 °C 5,6 °C 1,7 °C 72 % 995,7 hPa 0,0 l/m² 0 min 0 min 0 W/m² 16,1 km/h (3 Bft) 97,87 %
23.01.2026 18:18 6,4 °C 5,6 °C 1,7 °C 72 % 995,7 hPa 0,0 l/m² 0 min 0 min 0 W/m² 9,7 km/h (2 Bft) 100,00 %
23.01.2026 18:20 6,4 °C 5,6 °C 1,7 °C 72 % 995,7 hPa 0,0 l/m² 0 min 0 min 0 W/m² 12,9 km/h (3 Bft) 62,96 %
23.01.2026 18:22 6,3 °C 5,6 °C 1,1 °C 73 % 995,8 hPa 0,0 l/m² 0 min 0 min 0 W/m² 16,1 km/h (3 Bft) 100,00 %
23.01.2026 18:24 6,3 °C 5,6 °C 1,1 °C 73 % 995,8 hPa 0,0 l/m² 0 min 0 min 0 W/m² 12,9 km/h (3 Bft) 100,00 %
23.01.2026 18:26 6,3 °C 5,0 °C 1,1 °C 73 % 995,8 hPa 0,0 l/m² 0 min 0 min 0 W/m² 12,9 km/h (3 Bft) 100,00 %
23.01.2026 18:28 6,3 °C 5,0 °C 1,1 °C 73 % 995,8 hPa 0,0 l/m² 0 min 0 min 0 W/m² 12,9 km/h (3 Bft) 100,00 %
23.01.2026 18:30 6,2 °C 5,0 °C 1,1 °C 73 % 995,8 hPa 0,0 l/m² 0 min 0 min 0 W/m² 12,9 km/h (3 Bft) 97,87 %
23.01.2026 18:32 6,2 °C 5,0 °C 1,1 °C 73 % 995,8 hPa 0,0 l/m² 0 min 0 min 0 W/m² 12,9 km/h (3 Bft) 97,87 %
23.01.2026 18:34 6,2 °C 5,0 °C 1,1 °C 73 % 995,8 hPa 0,0 l/m² 0 min 0 min 0 W/m² 6,4 km/h (2 Bft) 100,00 %
23.01.2026 18:36 6,1 °C 5,0 °C 1,1 °C 73 % 995,9 hPa 0,0 l/m² 0 min 0 min 0 W/m² 12,9 km/h (3 Bft) 98,25 %
23.01.2026 18:38 6,1 °C 5,0 °C 1,1 °C 73 % 995,9 hPa 0,0 l/m² 0 min 0 min 0 W/m² 12,9 km/h (3 Bft) 100,00 %
23.01.2026 18:40 6,1 °C 5,0 °C 1,1 °C 73 % 996,0 hPa 0,0 l/m² 0 min 0 min 0 W/m² 16,1 km/h (3 Bft) 100,00 %
23.01.2026 18:42 6,1 °C 5,0 °C 1,1 °C 73 % 996,0 hPa 0,0 l/m² 0 min 0 min 0 W/m² 6,4 km/h (2 Bft) 100,00 %
23.01.2026 18:44 6,0 °C 5,0 °C 1,1 °C 74 % 996,1 hPa 0,0 l/m² 0 min 0 min 0 W/m² 6,4 km/h (2 Bft) 97,83 %
23.01.2026 18:46 5,9 °C 5,0 °C 1,1 °C 74 % 996,1 hPa 0,0 l/m² 0 min 0 min 0 W/m² 16,1 km/h (3 Bft) 96,36 %
23.01.2026 18:48 5,9 °C 5,0 °C 1,1 °C 74 % 996,2 hPa 0,0 l/m² 0 min 0 min 0 W/m² 6,4 km/h (2 Bft) 97,83 %
23.01.2026 18:50 5,9 °C 5,0 °C 1,1 °C 74 % 996,2 hPa 0,0 l/m² 0 min 0 min 0 W/m² 12,9 km/h (3 Bft) 97,87 %
23.01.2026 18:52 5,9 °C 5,0 °C 1,1 °C 74 % 996,1 hPa 0,0 l/m² 0 min 0 min 0 W/m² 6,4 km/h (2 Bft) 95,00 %
23.01.2026 18:54 5,8 °C 5,0 °C 1,1 °C 74 % 996,1 hPa 0,0 l/m² 0 min 0 min 0 W/m² 6,4 km/h (2 Bft) 97,87 %
23.01.2026 18:56 5,8 °C 5,0 °C 1,1 °C 74 % 996,1 hPa 0,0 l/m² 0 min 0 min 0 W/m² 16,1 km/h (3 Bft) 97,83 %
23.01.2026 18:58 5,8 °C 5,0 °C 1,1 °C 74 % 996,1 hPa 0,0 l/m² 0 min 0 min 0 W/m² 16,1 km/h (3 Bft) 94,44 %
23.01.2026 19:00 5,7 °C 5,0 °C 1,1 °C 74 % 996,2 hPa 0,0 l/m² 0 min 0 min 0 W/m² 16,1 km/h (3 Bft) 95,00 %
23.01.2026 19:02 5,7 °C 5,0 °C 1,1 °C 74 % 996,2 hPa 0,0 l/m² 0 min 0 min 0 W/m² 12,9 km/h (3 Bft) 93,62 %
23.01.2026 19:04 5,7 °C 5,0 °C 1,1 °C 74 % 996,2 hPa 0,0 l/m² 0 min 0 min 0 W/m² 12,9 km/h (3 Bft) 95,74 %
23.01.2026 19:06 5,7 °C 5,0 °C 1,1 °C 73 % 996,1 hPa 0,0 l/m² 0 min 0 min 0 W/m² 12,9 km/h (3 Bft) 92,73 %
23.01.2026 19:08 5,7 °C 5,0 °C 1,1 °C 73 % 996,1 hPa 0,0 l/m² 0 min 0 min 0 W/m² 16,1 km/h (3 Bft) 95,65 %
23.01.2026 19:10 5,6 °C 5,0 °C 1,1 °C 73 % 996,2 hPa 0,0 l/m² 0 min 0 min 0 W/m² 12,9 km/h (3 Bft) 95,00 %
23.01.2026 19:12 5,6 °C 5,0 °C 1,1 °C 73 % 996,1 hPa 0,0 l/m² 0 min 0 min 0 W/m² 16,1 km/h (3 Bft) 95,74 %
23.01.2026 19:14 5,6 °C 5,0 °C 1,1 °C 73 % 996,2 hPa 0,0 l/m² 0 min 0 min 0 W/m² 16,1 km/h (3 Bft) 95,65 %
23.01.2026 19:16 5,6 °C 5,0 °C 1,1 °C 73 % 996,2 hPa 0,0 l/m² 0 min 0 min 0 W/m² 9,7 km/h (2 Bft) 94,74 %
23.01.2026 19:18 5,6 °C 5,0 °C 1,1 °C 73 % 996,2 hPa 0,0 l/m² 0 min 0 min 0 W/m² 12,9 km/h (3 Bft) 95,45 %
23.01.2026 19:20 5,6 °C 5,0 °C 1,1 °C 73 % 996,3 hPa 0,0 l/m² 0 min 0 min 0 W/m² 16,1 km/h (3 Bft) 95,00 %
23.01.2026 19:22 5,6 °C 5,0 °C 1,1 °C 73 % 996,3 hPa 0,0 l/m² 0 min 0 min 0 W/m² 9,7 km/h (2 Bft) 96,36 %
23.01.2026 19:24 5,6 °C 5,0 °C 1,1 °C 73 % 996,3 hPa 0,0 l/m² 0 min 0 min 0 W/m² 19,3 km/h (3 Bft) 94,87 %
23.01.2026 19:26 5,6 °C 5,0 °C 1,1 °C 73 % 996,4 hPa 0,0 l/m² 0 min 0 min 0 W/m² 12,9 km/h (3 Bft) 94,64 %
23.01.2026 19:28 5,6 °C 5,0 °C 1,1 °C 73 % 996,5 hPa 0,0 l/m² 0 min 0 min 0 W/m² 12,9 km/h (3 Bft) 97,37 %
23.01.2026 19:30 5,6 °C 5,0 °C 1,1 °C 73 % 996,6 hPa 0,0 l/m² 0 min 0 min 0 W/m² 12,9 km/h (3 Bft) 95,65 %
23.01.2026 19:32 5,5 °C 5,0 °C 0,6 °C 73 % 996,6 hPa 0,0 l/m² 0 min 0 min 0 W/m² 12,9 km/h (3 Bft) 96,36 %
23.01.2026 19:34 5,5 °C 4,4 °C 0,6 °C 73 % 996,6 hPa 0,0 l/m² 0 min 0 min 0 W/m² 3,2 km/h (1 Bft) 97,83 %
23.01.2026 19:36 5,5 °C 4,4 °C 0,6 °C 73 % 996,6 hPa 0,0 l/m² 0 min 0 min 0 W/m² 3,2 km/h (1 Bft) 97,83 %
23.01.2026 19:38 5,5 °C 4,4 °C 0,6 °C 73 % 996,7 hPa 0,0 l/m² 0 min 0 min 0 W/m² 6,4 km/h (2 Bft) 100,00 %
23.01.2026 19:40 5,5 °C 4,4 °C 0,6 °C 73 % 996,7 hPa 0,0 l/m² 0 min 0 min 0 W/m² 6,4 km/h (2 Bft) 97,78 %
23.01.2026 19:42 5,5 °C 4,4 °C 0,6 °C 73 % 996,7 hPa 0,0 l/m² 0 min 0 min 0 W/m² 12,9 km/h (3 Bft) 98,15 %
23.01.2026 19:44 5,4 °C 4,4 °C 0,6 °C 73 % 996,7 hPa 0,0 l/m² 0 min 0 min 0 W/m² 12,9 km/h (3 Bft) 95,12 %
23.01.2026 19:46 5,4 °C 4,4 °C 0,6 °C 73 % 996,7 hPa 0,0 l/m² 0 min 0 min 0 W/m² 16,1 km/h (3 Bft) 98,18 %
23.01.2026 19:48 5,4 °C 4,4 °C 0,6 °C 74 % 996,7 hPa 0,0 l/m² 0 min 0 min 0 W/m² 6,4 km/h (2 Bft) 97,44 %
23.01.2026 19:50 5,4 °C 4,4 °C 0,6 °C 74 % 996,8 hPa 0,0 l/m² 0 min 0 min 0 W/m² 12,9 km/h (3 Bft) 97,83 %
23.01.2026 19:52 5,4 °C 4,4 °C 0,6 °C 74 % 996,9 hPa 0,0 l/m² 0 min 0 min 0 W/m² 12,9 km/h (3 Bft) 98,21 %
23.01.2026 19:54 5,3 °C 4,4 °C 0,6 °C 74 % 996,8 hPa 0,0 l/m² 0 min 0 min 0 W/m² 12,9 km/h (3 Bft) 97,44 %
23.01.2026 19:56 5,3 °C 4,4 °C 0,6 °C 74 % 996,8 hPa 0,0 l/m² 0 min 0 min 0 W/m² 6,4 km/h (2 Bft) 97,83 %
23.01.2026 19:58 5,3 °C 4,4 °C 0,6 °C 74 % 996,9 hPa 0,0 l/m² 0 min 0 min 0 W/m² 12,9 km/h (3 Bft) 96,43 %
23.01.2026 20:00 5,3 °C 4,4 °C 0,6 °C 74 % 996,9 hPa 0,0 l/m² 0 min 0 min 0 W/m² 6,4 km/h (2 Bft) 94,74 %
23.01.2026 20:02 5,3 °C 4,4 °C 0,6 °C 74 % 996,9 hPa 0,0 l/m² 0 min 0 min 0 W/m² 6,4 km/h (2 Bft) 97,83 %
23.01.2026 20:04 5,3 °C 4,4 °C 0,6 °C 74 % 996,9 hPa 0,0 l/m² 0 min 0 min 0 W/m² 6,4 km/h (2 Bft) 95,92 %
23.01.2026 20:06 5,3 °C 4,4 °C 0,6 °C 74 % 996,8 hPa 0,0 l/m² 0 min 0 min 0 W/m² 12,9 km/h (3 Bft) 98,25 %
23.01.2026 20:08 5,3 °C 4,4 °C 0,6 °C 74 % 996,7 hPa 0,0 l/m² 0 min 0 min 0 W/m² 12,9 km/h (3 Bft) 97,67 %
23.01.2026 20:10 5,3 °C 4,4 °C 0,6 °C 74 % 996,7 hPa 0,0 l/m² 0 min 0 min 0 W/m² 22,5 km/h (4 Bft) 95,00 %
23.01.2026 20:12 5,3 °C 4,4 °C 0,6 °C 73 % 996,7 hPa 0,0 l/m² 0 min 0 min 0 W/m² 16,1 km/h (3 Bft) 98,18 %
23.01.2026 20:14 5,3 °C 4,4 °C 0,6 °C 73 % 996,7 hPa 0,0 l/m² 0 min 0 min 0 W/m² 16,1 km/h (3 Bft) 94,87 %
23.01.2026 20:16 5,2 °C 4,4 °C 0,6 °C 73 % 996,8 hPa 0,0 l/m² 0 min 0 min 0 W/m² 16,1 km/h (3 Bft) 98,15 %
23.01.2026 20:18 5,2 °C 4,4 °C 0,6 °C 73 % 996,8 hPa 0,0 l/m² 0 min 0 min 0 W/m² 12,9 km/h (3 Bft) 97,44 %
23.01.2026 20:20 5,2 °C 4,4 °C 0,6 °C 73 % 996,8 hPa 0,0 l/m² 0 min 0 min 0 W/m² 12,9 km/h (3 Bft) 95,45 %
23.01.2026 20:22 5,2 °C 4,4 °C 0,6 °C 73 % 996,7 hPa 0,0 l/m² 0 min 0 min 0 W/m² 16,1 km/h (3 Bft) 98,00 %
23.01.2026 20:24 5,2 °C 4,4 °C 0,6 °C 73 % 996,9 hPa 0,0 l/m² 0 min 0 min 0 W/m² 12,9 km/h (3 Bft) 100,00 %
23.01.2026 20:26 5,2 °C 4,4 °C 0,6 °C 73 % 997,0 hPa 0,0 l/m² 0 min 0 min 0 W/m² 9,7 km/h (2 Bft) 100,00 %
23.01.2026 20:28 5,2 °C 4,4 °C 0,6 °C 73 % 996,9 hPa 0,0 l/m² 0 min 0 min 0 W/m² 16,1 km/h (3 Bft) 100,00 %
23.01.2026 20:30 5,2 °C 4,4 °C 0,6 °C 73 % 996,9 hPa 0,0 l/m² 0 min 0 min 0 W/m² 12,9 km/h (3 Bft) 100,00 %
23.01.2026 20:32 5,2 °C 4,4 °C 0,6 °C 73 % 996,9 hPa 0,0 l/m² 0 min 0 min 0 W/m² 16,1 km/h (3 Bft) 98,11 %
23.01.2026 20:34 5,2 °C 4,4 °C 0,6 °C 73 % 996,9 hPa 0,0 l/m² 0 min 0 min 0 W/m² 12,9 km/h (3 Bft) 97,56 %
23.01.2026 20:36 5,2 °C 4,4 °C 0,6 °C 73 % 996,9 hPa 0,0 l/m² 0 min 0 min 0 W/m² 12,9 km/h (3 Bft) 100,00 %
23.01.2026 20:38 5,2 °C 4,4 °C 0,6 °C 73 % 997,0 hPa 0,0 l/m² 0 min 0 min 0 W/m² 16,1 km/h (3 Bft) 100,00 %
23.01.2026 20:40 5,2 °C 4,4 °C 0,6 °C 73 % 997,0 hPa 0,0 l/m² 0 min 0 min 0 W/m² 16,1 km/h (3 Bft) 97,83 %
23.01.2026 20:42 5,2 °C 4,4 °C 0,6 °C 73 % 997,0 hPa 0,0 l/m² 0 min 0 min 0 W/m² 16,1 km/h (3 Bft) 98,18 %
23.01.2026 20:44 5,2 °C 4,4 °C 0,6 °C 73 % 997,0 hPa 0,0 l/m² 0 min 0 min 0 W/m² 16,1 km/h (3 Bft) 100,00 %
23.01.2026 20:46 5,2 °C 4,4 °C 0,6 °C 73 % 997,1 hPa 0,0 l/m² 0 min 0 min 0 W/m² 9,7 km/h (2 Bft) 100,00 %
23.01.2026 20:48 5,1 °C 4,4 °C 0,6 °C 73 % 997,2 hPa 0,0 l/m² 0 min 0 min 0 W/m² 12,9 km/h (3 Bft) 96,36 %
23.01.2026 20:50 5,1 °C 4,4 °C 0,6 °C 73 % 997,2 hPa 0,0 l/m² 0 min 0 min 0 W/m² 16,1 km/h (3 Bft) 95,00 %
23.01.2026 20:52 5,1 °C 4,4 °C 0,6 °C 73 % 997,2 hPa 0,0 l/m² 0 min 0 min 0 W/m² 19,3 km/h (3 Bft) 92,59 %
23.01.2026 20:54 5,1 °C 4,4 °C 0,6 °C 73 % 997,1 hPa 0,0 l/m² 0 min 0 min 0 W/m² 16,1 km/h (3 Bft) 94,87 %
23.01.2026 20:56 5,1 °C 4,4 °C 0,6 °C 73 % 997,1 hPa 0,0 l/m² 0 min 0 min 0 W/m² 16,1 km/h (3 Bft) 95,56 %
23.01.2026 20:58 5,1 °C 4,4 °C 0,6 °C 73 % 997,2 hPa 0,0 l/m² 0 min 0 min 0 W/m² 16,1 km/h (3 Bft) 97,96 %
23.01.2026 21:00 5,1 °C 4,4 °C 0,6 °C 73 % 997,2 hPa 0,0 l/m² 0 min 0 min 0 W/m² 16,1 km/h (3 Bft) 97,87 %
23.01.2026 21:02 5,1 °C 4,4 °C 0,6 °C 73 % 997,1 hPa 0,0 l/m² 0 min 0 min 0 W/m² 12,9 km/h (3 Bft) 97,78 %
23.01.2026 21:04 5,1 °C 4,4 °C 0,6 °C 73 % 997,0 hPa 0,0 l/m² 0 min 0 min 0 W/m² 12,9 km/h (3 Bft) 95,92 %
23.01.2026 21:06 5,0 °C 4,4 °C 0,6 °C 73 % 997,1 hPa 0,0 l/m² 0 min 0 min 0 W/m² 12,9 km/h (3 Bft) 94,83 %
23.01.2026 21:08 5,0 °C 4,4 °C 0,6 °C 73 % 997,2 hPa 0,0 l/m² 0 min 0 min 0 W/m² 16,1 km/h (3 Bft) 100,00 %
23.01.2026 21:10 4,9 °C 4,4 °C 0,6 °C 73 % 997,2 hPa 0,0 l/m² 0 min 0 min 0 W/m² 12,9 km/h (3 Bft) 97,50 %
23.01.2026 21:12 4,9 °C 4,4 °C 0,6 °C 73 % 997,2 hPa 0,0 l/m² 0 min 0 min 0 W/m² 12,9 km/h (3 Bft) 97,78 %
23.01.2026 21:14 4,9 °C 4,4 °C 0,6 °C 73 % 997,2 hPa 0,0 l/m² 0 min 0 min 0 W/m² 19,3 km/h (3 Bft) 97,96 %
23.01.2026 21:16 4,9 °C 4,4 °C 0,6 °C 73 % 997,2 hPa 0,0 l/m² 0 min 0 min 0 W/m² 12,9 km/h (3 Bft) 97,78 %
23.01.2026 21:18 4,9 °C 4,4 °C 0,6 °C 73 % 997,2 hPa 0,0 l/m² 0 min 0 min 0 W/m² 12,9 km/h (3 Bft) 93,75 %
23.01.2026 21:20 4,9 °C 4,4 °C 0,6 °C 73 % 997,3 hPa 0,0 l/m² 0 min 0 min 0 W/m² 12,9 km/h (3 Bft) 100,00 %
23.01.2026 21:22 4,9 °C 4,4 °C 0,6 °C 73 % 997,4 hPa 0,0 l/m² 0 min 0 min 0 W/m² 16,1 km/h (3 Bft) 100,00 %
23.01.2026 21:24 4,8 °C 3,9 °C 0,6 °C 73 % 997,5 hPa 0,0 l/m² 0 min 0 min 0 W/m² 19,3 km/h (3 Bft) 100,00 %
23.01.2026 21:26 4,8 °C 3,9 °C 0,6 °C 73 % 997,4 hPa 0,0 l/m² 0 min 0 min 0 W/m² 22,5 km/h (4 Bft) 100,00 %
23.01.2026 21:28 4,8 °C 3,9 °C 0,6 °C 73 % 997,4 hPa 0,0 l/m² 0 min 0 min 0 W/m² 12,9 km/h (3 Bft) 100,00 %
23.01.2026 21:30 4,8 °C 3,9 °C 0,6 °C 73 % 997,6 hPa 0,0 l/m² 0 min 0 min 0 W/m² 25,7 km/h (4 Bft) 100,00 %
23.01.2026 21:32 4,8 °C 3,9 °C 0,0 °C 73 % 997,6 hPa 0,0 l/m² 0 min 0 min 0 W/m² 22,5 km/h (4 Bft) 100,00 %
23.01.2026 21:34 4,7 °C 3,9 °C 0,0 °C 73 % 997,5 hPa 0,0 l/m² 0 min 0 min 0 W/m² 19,3 km/h (3 Bft) 97,96 %
23.01.2026 21:36 4,7 °C 3,9 °C 0,0 °C 72 % 997,6 hPa 0,0 l/m² 0 min 0 min 0 W/m² 25,7 km/h (4 Bft) 100,00 %
23.01.2026 21:38 4,7 °C 3,9 °C 0,0 °C 72 % 997,7 hPa 0,0 l/m² 0 min 0 min 0 W/m² 16,1 km/h (3 Bft) 100,00 %
23.01.2026 21:40 4,7 °C 3,9 °C 0,0 °C 72 % 997,7 hPa 0,0 l/m² 0 min 0 min 0 W/m² 25,7 km/h (4 Bft) 100,00 %
23.01.2026 21:42 4,7 °C 3,9 °C 0,0 °C 72 % 997,6 hPa 0,0 l/m² 0 min 0 min 0 W/m² 22,5 km/h (4 Bft) 100,00 %
23.01.2026 21:44 4,6 °C 3,9 °C 0,0 °C 72 % 997,6 hPa 0,0 l/m² 0 min 0 min 0 W/m² 16,1 km/h (3 Bft) 98,04 %
23.01.2026 21:46 4,6 °C 3,9 °C 0,0 °C 72 % 997,5 hPa 0,0 l/m² 0 min 0 min 0 W/m² 25,7 km/h (4 Bft) 95,35 %
23.01.2026 21:48 4,6 °C 3,9 °C 0,0 °C 71 % 997,5 hPa 0,0 l/m² 0 min 0 min 0 W/m² 19,3 km/h (3 Bft) 98,04 %
23.01.2026 21:50 4,6 °C 3,9 °C 0,0 °C 72 % 997,6 hPa 0,0 l/m² 0 min 0 min 0 W/m² 16,1 km/h (3 Bft) 98,08 %
23.01.2026 21:52 4,6 °C 3,9 °C 0,0 °C 72 % 997,6 hPa 0,0 l/m² 0 min 0 min 0 W/m² 19,3 km/h (3 Bft) 97,56 %
23.01.2026 21:54 4,6 °C 3,9 °C 0,0 °C 72 % 997,6 hPa 0,0 l/m² 0 min 0 min 0 W/m² 22,5 km/h (4 Bft) 98,15 %
23.01.2026 21:56 4,6 °C 3,9 °C 0,0 °C 71 % 997,7 hPa 0,0 l/m² 0 min 0 min 0 W/m² 32,2 km/h (5 Bft) 97,50 %
23.01.2026 21:58 4,5 °C 3,9 °C 0,0 °C 71 % 997,7 hPa 0,0 l/m² 0 min 0 min 0 W/m² 22,5 km/h (4 Bft) 94,44 %
23.01.2026 22:00 4,5 °C 3,9 °C 0,0 °C 71 % 997,7 hPa 0,0 l/m² 0 min 0 min 0 W/m² 16,1 km/h (3 Bft) 97,50 %
23.01.2026 22:02 4,5 °C 3,9 °C 0,0 °C 71 % 997,7 hPa 0,0 l/m² 0 min 0 min 0 W/m² 16,1 km/h (3 Bft) 97,73 %
23.01.2026 22:04 4,4 °C 3,9 °C 0,0 °C 71 % 997,7 hPa 0,0 l/m² 0 min 0 min 0 W/m² 12,9 km/h (3 Bft) 98,00 %
23.01.2026 22:06 4,4 °C 3,9 °C 0,0 °C 72 % 997,7 hPa 0,0 l/m² 0 min 0 min 0 W/m² 16,1 km/h (3 Bft) 98,15 %
23.01.2026 22:08 4,4 °C 3,9 °C 0,0 °C 72 % 997,7 hPa 0,0 l/m² 0 min 0 min 0 W/m² 22,5 km/h (4 Bft) 95,00 %
23.01.2026 22:10 4,4 °C 3,9 °C 0,0 °C 72 % 997,7 hPa 0,0 l/m² 0 min 0 min 0 W/m² 19,3 km/h (3 Bft) 95,24 %
23.01.2026 22:12 4,4 °C 3,9 °C 0,0 °C 71 % 997,8 hPa 0,0 l/m² 0 min 0 min 0 W/m² 19,3 km/h (3 Bft) 96,15 %
23.01.2026 22:14 4,4 °C 3,9 °C 0,0 °C 71 % 997,8 hPa 0,0 l/m² 0 min 0 min 0 W/m² 25,7 km/h (4 Bft) 95,35 %
23.01.2026 22:16 4,4 °C 3,9 °C 0,0 °C 71 % 997,8 hPa 0,0 l/m² 0 min 0 min 0 W/m² 19,3 km/h (3 Bft) 94,00 %
23.01.2026 22:18 4,4 °C 3,9 °C 0,0 °C 71 % 997,7 hPa 0,0 l/m² 0 min 0 min 0 W/m² 19,3 km/h (3 Bft) 93,18 %
23.01.2026 22:20 4,4 °C 3,9 °C 0,0 °C 71 % 997,8 hPa 0,0 l/m² 0 min 0 min 0 W/m² 19,3 km/h (3 Bft) 94,00 %
23.01.2026 22:22 4,4 °C 3,9 °C 0,0 °C 72 % 997,8 hPa 0,0 l/m² 0 min 0 min 0 W/m² 19,3 km/h (3 Bft) 92,86 %
23.01.2026 22:24 4,3 °C 3,9 °C 0,0 °C 72 % 997,9 hPa 0,0 l/m² 0 min 0 min 0 W/m² 19,3 km/h (3 Bft) 94,23 %
23.01.2026 22:26 4,3 °C 3,9 °C 0,0 °C 72 % 998,0 hPa 0,0 l/m² 0 min 0 min 0 W/m² 16,1 km/h (3 Bft) 95,35 %
23.01.2026 22:28 4,3 °C 3,9 °C 0,0 °C 72 % 998,0 hPa 0,0 l/m² 0 min 0 min 0 W/m² 35,4 km/h (5 Bft) 92,00 %
23.01.2026 22:30 4,3 °C 3,9 °C 0,0 °C 72 % 997,9 hPa 0,0 l/m² 0 min 0 min 0 W/m² 25,7 km/h (4 Bft) 94,34 %
23.01.2026 22:32 4,3 °C 3,9 °C 0,0 °C 72 % 998,0 hPa 0,0 l/m² 0 min 0 min 0 W/m² 16,1 km/h (3 Bft) 92,50 %
23.01.2026 22:34 4,3 °C 3,9 °C 0,0 °C 72 % 998,0 hPa 0,0 l/m² 0 min 0 min 0 W/m² 19,3 km/h (3 Bft) 93,75 %
23.01.2026 22:36 4,3 °C 3,9 °C 0,0 °C 72 % 997,9 hPa 0,0 l/m² 0 min 0 min 0 W/m² 25,7 km/h (4 Bft) 97,73 %
23.01.2026 22:38 4,3 °C 3,9 °C 0,0 °C 72 % 997,9 hPa 0,0 l/m² 0 min 0 min 0 W/m² 16,1 km/h (3 Bft) 95,92 %
23.01.2026 22:40 4,3 °C 3,9 °C 0,0 °C 72 % 997,9 hPa 0,0 l/m² 0 min 0 min 0 W/m² 16,1 km/h (3 Bft) 97,62 %
23.01.2026 22:42 4,3 °C 3,9 °C 0,0 °C 72 % 997,8 hPa 0,0 l/m² 0 min 0 min 0 W/m² 19,3 km/h (3 Bft) 98,08 %
23.01.2026 22:44 4,3 °C 3,9 °C 0,0 °C 72 % 997,9 hPa 0,0 l/m² 0 min 0 min 0 W/m² 29,0 km/h (5 Bft) 93,02 %
23.01.2026 22:46 4,3 °C 3,9 °C 0,0 °C 72 % 997,9 hPa 0,0 l/m² 0 min 0 min 0 W/m² 22,5 km/h (4 Bft) 94,12 %
23.01.2026 22:48 4,3 °C 3,9 °C 0,0 °C 72 % 998,0 hPa 0,0 l/m² 0 min 0 min 0 W/m² 22,5 km/h (4 Bft) 95,35 %
23.01.2026 22:50 4,3 °C 3,9 °C 0,0 °C 72 % 998,0 hPa 0,0 l/m² 0 min 0 min 0 W/m² 16,1 km/h (3 Bft) 94,00 %
23.01.2026 22:52 4,3 °C 3,9 °C 0,0 °C 72 % 997,9 hPa 0,0 l/m² 0 min 0 min 0 W/m² 16,1 km/h (3 Bft) 96,23 %
23.01.2026 22:54 4,3 °C 3,9 °C 0,0 °C 72 % 998,0 hPa 0,0 l/m² 0 min 0 min 0 W/m² 25,7 km/h (4 Bft) 97,50 %
23.01.2026 22:56 4,3 °C 3,9 °C 0,0 °C 72 % 998,0 hPa 0,0 l/m² 0 min 0 min 0 W/m² 19,3 km/h (3 Bft) 97,92 %
23.01.2026 22:58 4,3 °C 3,9 °C 0,0 °C 72 % 998,0 hPa 0,0 l/m² 0 min 0 min 0 W/m² 16,1 km/h (3 Bft) 97,73 %
23.01.2026 23:00 4,3 °C 3,9 °C 0,0 °C 72 % 998,0 hPa 0,0 l/m² 0 min 0 min 0 W/m² 16,1 km/h (3 Bft) 100,00 %
23.01.2026 23:02 4,2 °C 3,3 °C 0,0 °C 72 % 998,1 hPa 0,0 l/m² 0 min 0 min 0 W/m² 19,3 km/h (3 Bft) 97,62 %
23.01.2026 23:04 4,2 °C 3,3 °C 0,0 °C 72 % 998,1 hPa 0,0 l/m² 0 min 0 min 0 W/m² 19,3 km/h (3 Bft) 94,12 %
23.01.2026 23:06 4,2 °C 3,3 °C 0,0 °C 72 % 998,2 hPa 0,0 l/m² 0 min 0 min 0 W/m² 22,5 km/h (4 Bft) 95,83 %
23.01.2026 23:08 4,2 °C 3,3 °C 0,0 °C 72 % 998,2 hPa 0,0 l/m² 0 min 0 min 0 W/m² 19,3 km/h (3 Bft) 97,78 %
23.01.2026 23:10 4,2 °C 3,3 °C 0,0 °C 72 % 998,2 hPa 0,0 l/m² 0 min 0 min 0 W/m² 29,0 km/h (5 Bft) 95,92 %
23.01.2026 23:12 4,2 °C 3,3 °C 0,0 °C 72 % 998,2 hPa 0,0 l/m² 0 min 0 min 0 W/m² 19,3 km/h (3 Bft) 100,00 %
23.01.2026 23:14 4,2 °C 3,3 °C 0,0 °C 72 % 998,2 hPa 0,0 l/m² 0 min 0 min 0 W/m² 22,5 km/h (4 Bft) 100,00 %
23.01.2026 23:16 4,2 °C 3,3 °C 0,0 °C 72 % 998,2 hPa 0,0 l/m² 0 min 0 min 0 W/m² 22,5 km/h (4 Bft) 100,00 %
23.01.2026 23:18 4,2 °C 3,3 °C 0,0 °C 72 % 998,2 hPa 0,0 l/m² 0 min 0 min 0 W/m² 22,5 km/h (4 Bft) 98,08 %
23.01.2026 23:20 4,1 °C 3,3 °C 0,0 °C 72 % 998,3 hPa 0,0 l/m² 0 min 0 min 0 W/m² 19,3 km/h (3 Bft) 100,00 %
23.01.2026 23:22 4,1 °C 3,3 °C 0,0 °C 72 % 998,4 hPa 0,0 l/m² 0 min 0 min 0 W/m² 22,5 km/h (4 Bft) 100,00 %
23.01.2026 23:24 4,1 °C 3,3 °C 0,0 °C 73 % 998,4 hPa 0,0 l/m² 0 min 0 min 0 W/m² 19,3 km/h (3 Bft) 100,00 %
23.01.2026 23:26 4,1 °C 3,3 °C 0,0 °C 73 % 998,4 hPa 0,0 l/m² 0 min 0 min 0 W/m² 19,3 km/h (3 Bft) 100,00 %
23.01.2026 23:28 4,1 °C 3,3 °C 0,0 °C 73 % 998,4 hPa 0,0 l/m² 0 min 0 min 0 W/m² 16,1 km/h (3 Bft) 100,00 %
23.01.2026 23:30 4,1 °C 3,3 °C 0,0 °C 73 % 998,4 hPa 0,0 l/m² 0 min 0 min 0 W/m² 12,9 km/h (3 Bft) 100,00 %
23.01.2026 23:32 4,1 °C 3,3 °C 0,0 °C 73 % 998,4 hPa 0,0 l/m² 0 min 0 min 0 W/m² 16,1 km/h (3 Bft) 97,96 %
23.01.2026 23:34 4,1 °C 3,3 °C 0,0 °C 73 % 998,5 hPa 0,0 l/m² 0 min 0 min 0 W/m² 16,1 km/h (3 Bft) 100,00 %
23.01.2026 23:36 4,1 °C 3,3 °C 0,0 °C 73 % 998,5 hPa 0,0 l/m² 0 min 0 min 0 W/m² 22,5 km/h (4 Bft) 100,00 %
23.01.2026 23:38 4,1 °C 3,3 °C -0,6 °C 73 % 998,4 hPa 0,0 l/m² 0 min 0 min 0 W/m² 22,5 km/h (4 Bft) 97,67 %
23.01.2026 23:40 4,1 °C 3,3 °C -0,6 °C 73 % 998,4 hPa 0,0 l/m² 0 min 0 min 0 W/m² 22,5 km/h (4 Bft) 100,00 %
23.01.2026 23:42 4,1 °C 3,3 °C -0,6 °C 73 % 998,4 hPa 0,0 l/m² 0 min 0 min 0 W/m² 12,9 km/h (3 Bft) 100,00 %
23.01.2026 23:44 4,1 °C 3,3 °C -0,6 °C 73 % 998,4 hPa 0,0 l/m² 0 min 0 min 0 W/m² 22,5 km/h (4 Bft) 100,00 %
23.01.2026 23:46 4,1 °C 3,3 °C -0,6 °C 73 % 998,5 hPa 0,0 l/m² 0 min 0 min 0 W/m² 12,9 km/h (3 Bft) 100,00 %
23.01.2026 23:48 4,1 °C 3,3 °C -0,6 °C 73 % 998,4 hPa 0,0 l/m² 0 min 0 min 0 W/m² 19,3 km/h (3 Bft) 100,00 %
23.01.2026 23:50 4,1 °C 3,3 °C -0,6 °C 73 % 998,4 hPa 0,0 l/m² 0 min 0 min 0 W/m² 16,1 km/h (3 Bft) 100,00 %
23.01.2026 23:52 4,1 °C 3,3 °C -0,6 °C 73 % 998,4 hPa 0,0 l/m² 0 min 0 min 0 W/m² 16,1 km/h (3 Bft) 100,00 %
23.01.2026 23:54 4,1 °C 3,3 °C -0,6 °C 73 % 998,4 hPa 0,0 l/m² 0 min 0 min 0 W/m² 19,3 km/h (3 Bft) 100,00 %
23.01.2026 23:56 4,1 °C 3,3 °C -0,6 °C 73 % 998,5 hPa 0,0 l/m² 0 min 0 min 0 W/m² 12,9 km/h (3 Bft) 97,87 %
23.01.2026 23:58 4,1 °C 3,3 °C -0,6 °C 73 % 998,5 hPa 0,0 l/m² 0 min 0 min 0 W/m² 16,1 km/h (3 Bft) 97,78 %
_ Min-Zeit 04:00 03:10 03:28 14:04 13:48 - - - - 19:34 12:12
Minimum _ 2,9 °C 2,2 °C -1,7 °C 70 % 995,0 hPa - - - - 3,2 km/h (1 Bft) 59,62 %
_ Max-Zeit 13:58 13:50 13:56 03:50 23:34 00:00 10:36 04:54 13:30 11:56 00:00
Maximum _ 9,1 °C 15,0 °C 3,9 °C 92 % 998,5 hPa 0,0 l/m² 2 min 2 min 394 W/m² 38,6 km/h
O-SO (5 Bft)
100,00 %
Durchschnitt _ 4,9 °C 4,7 °C 0,4 °C 81 % 996,1 hPa #0,0 l/m² #1:50 h #6 min. 116 W/m² 16,7 km/h (3 Bft) 97,00 %
© 2026 W. Hausmann